GFSFLT1_250_rhum_000.txt.gz
RH
20 19 17 23 26 26 22 22 19 22 16 17 19 24 26 24 18 16 15 44 100 100 76 80 73 92 89 51 41 44 31 29 31
18 18 18 17 21 24 22 15 17 16 14 15 22 29 30 20 15 16 21 69 100 100 70 90 100 100 74 60 60 44 34 41 43
20 20 21 19 19 20 14 13 13 16 25 31 34 36 25 15 12 15 38 75 100 97 94 100 100 100 76 80 80 58 51 55 64
22 22 22 23 22 15 14 15 20 35 44 53 43 26 15 12 12 19 57 100 100 100 95 100 100 100 92 86 80 73 56 53 65
24 28 30 25 16 15 19 23 43 54 55 50 30 17 13 11 10 33 92 100 100 99 100 97 100 100 100 97 74 66 56 42 63
33 30 21 19 16 21 29 52 63 58 51 31 20 15 13 12 12 37 97 100 100 100 100 100 100 100 100 98 95 88 76 43 54
34 21 18 17 19 37 57 61 58 40 28 23 18 14 15 14 13 25 80 100 100 100 98 100 100 100 100 87 99 90 82 66 43
24 18 17 19 26 54 61 48 31 26 26 20 16 13 16 17 14 20 52 97 97 86 74 97 100 100 100 100 100 100 85 69 50
20 19 23 25 46 58 45 33 25 25 23 18 14 14 16 18 16 12 40 89 84 98 100 100 100 100 100 100 100 92 78 86 74
22 31 45 65 56 43 32 28 24 27 23 20 16 13 16 19 23 15 12 41 75 93 97 99 100 100 100 100 100 98 85 78 56
31 46 77 66 39 24 21 22 27 31 27 27 22 17 15 16 20 22 21 16 28 67 85 90 100 100 100 100 94 81 76 85 80
49 83 76 47 27 24 24 25 29 31 31 32 34 29 20 19 18 17 19 24 26 40 77 74 87 78 78 89 93 93 75 80 73
78 82 74 52 47 34 29 27 27 28 27 28 30 34 38 33 24 22 21 18 20 33 61 71 79 84 68 68 75 62 73 56 55
95 88 80 76 65 52 42 38 37 37 35 33 30 29 33 38 45 44 40 36 31 30 31 37 44 49 56 63 52 45 48 50 51
98 88 77 70 65 60 53 48 43 47 48 48 48 47 43 38 35 36 43 50 58 60 60 59 58 57 57 60 65 69 72 71 72
81 77 60 55 52 45 41 38 33 30 35 39 40 39 41 46 50 49 48 44 43 43 43 46 49 53 57 59 60 62 64 66 72
38 37 32 22 14 11 12 13 12 12 12 13 13 13 13 14 15 15 15 16 20 24 30 44 51 52 51 50 51 52 49 55 58
16 17 19 21 20 18 18 18 19 19 16 16 15 14 15 15 16 15 15 14 15 15 16 18 18 19 20 19 19 19 20 24 31
20 22 20 21 20 18 18 17 18 17 16 15 14 14 14 14 20 25 24 23 25 29 37 39 38 36 36 36 33 30 29 26 24
24 23 22 20 19 18 17 17 15 14 14 14 14 13 12 10 9 10 17 22 27 32 35 37 42 46 46 51 51 55 60 64 65

GFSFLT1_250_rhum_003.txt.gz
RH
56 41 29 25 22 21 18 17 16 19 17 17 17 15 14 16 18 18 20 24 26 25 20 18 30 85 100 100 73 80 86 93 55
61 52 38 27 21 21 19 19 19 23 22 18 14 12 12 16 19 27 31 34 31 24 18 26 84 100 100 100 100 87 87 83 68
50 35 29 25 22 22 26 25 21 19 19 15 15 18 21 24 29 38 43 36 26 18 25 32 86 100 100 100 100 100 100 96 81
56 34 29 26 22 26 27 26 18 18 17 19 24 30 37 42 52 52 40 25 16 14 20 41 88 100 100 100 100 100 100 100 100
39 35 33 28 29 24 32 23 16 17 19 28 44 48 53 52 52 42 24 18 15 17 23 52 82 100 100 100 100 91 100 100 100
44 40 38 35 23 30 26 17 16 19 32 51 57 60 52 39 31 25 21 17 14 14 19 73 98 100 100 100 100 100 100 100 100
46 43 40 37 37 31 20 18 19 24 51 54 44 34 30 28 25 20 17 14 15 13 19 69 100 100 100 100 100 100 100 100 100
46 46 53 41 39 25 17 27 36 52 52 38 33 30 28 27 22 18 16 15 17 17 15 39 88 100 100 100 100 99 100 100 100
47 60 54 38 31 20 28 48 56 45 30 24 28 33 29 24 23 21 16 16 19 21 17 18 34 84 94 100 100 99 99 100 100
42 53 51 35 20 30 50 59 44 29 27 27 30 32 32 31 32 28 21 17 18 21 22 19 16 42 83 93 97 93 96 100 100
45 48 31 19 31 47 69 62 49 35 28 27 26 28 29 31 32 33 34 29 20 20 20 22 22 16 23 65 82 96 100 100 100
54 35 20 32 64 75 79 67 61 50 42 34 34 34 33 30 27 27 32 37 38 32 25 22 23 22 20 17 20 45 81 88 83
27 18 35 60 85 87 85 73 74 68 61 54 44 40 37 38 39 39 41 37 32 35 42 44 39 32 30 28 26 26 31 56 75
16 26 63 81 99 98 87 73 59 54 50 45 41 38 34 32 34 38 38 36 39 42 43 41 37 38 42 45 45 42 36 36 44
18 50 69 56 57 64 46 34 25 19 16 16 14 13 13 13 13 13 13 13 14 14 17 22 29 37 42 41 39 41 44 46 48
27 59 34 31 27 23 22 21 21 22 22 22 20 20 20 20 20 19 18 16 16 15 14 14 14 14 14 15 17 21 28 35 43
39 24 17 18 20 22 24 23 21 20 19 18 18 19 16 16 17 16 16 15 15 15 14 15 15 16 17 19 19 20 20 20 21
26 25 22 22 23 25 24 22 22 19 18 21 22 20 22 23 23 20 17 16 16 16 16 17 16 14 14 14 14 15 14 15 16
27 26 27 26 25 25 24 22 22 21 21 21 19 17 16 18 20 28 28 26 26 26 25 24 24 25 26 26 25 24 24 24 26
28 26 26 27 25 23 23 23 22 22 22 22 20 16 14 13 12 13 18 22 25 26 26 27 27 29 31 32 31 31 32 31 31

GFSFLT1_250_rhum_006.txt.gz
RH
100 100 89 68 53 44 39 36 26 24 24 19 21 22 19 15 16 17 14 13 15 20 24 29 35 33 29 28 24 26 64 91 60
100 93 75 43 45 60 51 32 29 26 21 18 21 21 15 15 15 16 16 23 28 29 34 40 38 37 33 26 24 36 100 100 86
100 76 54 43 53 43 37 37 31 24 21 22 23 16 14 15 18 24 28 31 44 44 43 48 45 37 26 21 25 74 100 100 100
100 78 66 61 52 43 38 28 28 31 32 32 22 13 15 18 34 44 52 55 54 55 54 49 37 24 17 23 37 72 100 100 100
99 84 71 53 44 38 34 30 32 35 28 28 15 19 19 33 52 55 53 44 39 36 30 26 23 19 16 31 38 73 100 100 100
70 78 46 44 37 42 34 31 34 40 32 17 21 26 39 52 47 36 30 26 27 26 22 20 18 16 15 22 40 80 98 100 100
59 51 41 46 46 43 33 31 33 38 20 23 39 45 45 37 28 25 27 28 26 22 19 17 16 17 16 16 32 76 91 100 100
48 56 58 58 52 47 40 35 34 24 26 48 50 31 30 27 23 25 28 28 28 27 24 18 17 19 20 18 20 45 100 100 100
70 75 69 59 60 58 39 43 28 26 43 65 48 40 32 29 27 26 27 29 30 30 31 29 21 18 22 24 20 23 68 94 100
73 79 66 53 60 50 49 30 24 45 62 67 61 55 56 55 46 38 36 36 33 30 29 30 33 30 22 21 23 23 20 31 65
85 73 55 48 63 64 40 20 37 63 67 60 62 58 55 54 55 52 47 43 41 41 41 40 38 35 33 33 28 24 26 25 18
98 69 63 55 68 50 20 41 67 70 71 67 61 52 47 39 34 31 29 25 20 18 18 22 30 37 37 39 37 34 36 30 26
81 70 71 66 63 26 22 51 56 66 66 44 28 21 18 17 17 16 16 16 16 16 15 14 13 12 12 13 17 26 33 35 36
84 89 79 68 32 18 41 36 38 36 27 24 22 21 20 19 18 18 18 18 18 17 16 17 17 17 17 15 13 12 13 13 16
91 88 79 31 18 34 33 18 21 23 24 22 23 23 22 21 21 23 24 23 22 20 20 18 16 16 15 15 16 17 16 15 14
78 72 30 17 29 28 20 21 23 25 25 27 25 25 25 25 26 26 27 26 26 23 20 19 18 16 15 15 14 14 15 16 17
58 23 19 31 32 26 25 26 25 28 28 28 26 25 23 24 25 24 25 24 24 23 20 18 16 15 15 15 16 16 17 18 18
21 28 39 31 27 29 28 29 28 29 27 26 25 24 29 32 32 28 26 24 21 18 16 15 14 13 13 14 15 16 17 18 18
44 44 33 29 29 31 30 29 30 30 29 26 25 27 28 28 28 31 30 28 23 19 18 17 17 17 18 20 20 21 21 20 20
39 32 30 28 29 31 32 34 36 33 31 29 29 25 24 22 17 21 24 22 19 18 18 21 23 26 27 27 28 28 27 26 25

GFSFLT1_250_rhum_009.txt.gz
RH
48 53 86 100 99 99 90 67 46 46 37 28 28 24 22 22 25 25 19 12 13 15 16 18 20 23 25 33 31 31 40 36 31
43 39 50 48 83 99 85 63 71 53 34 30 31 24 25 26 31 18 15 15 16 19 30 27 37 35 39 39 39 37 40 39 34
54 63 64 62 95 100 93 83 56 36 33 32 33 23 23 30 20 16 19 20 30 44 54 62 58 57 58 55 54 48 43 35 27
61 79 92 100 95 81 75 78 45 36 38 44 38 29 25 24 16 23 29 38 53 52 42 36 38 41 45 42 36 30 26 21 21
70 89 79 99 76 63 64 53 42 40 45 51 41 32 29 19 21 40 50 51 42 31 29 28 28 28 27 23 22 21 18 16 18
100 100 97 92 88 73 58 47 46 52 50 47 41 36 27 23 36 42 30 26 26 26 26 28 25 24 22 20 17 16 15 16 16
93 96 97 93 85 77 65 55 54 57 45 44 44 34 20 31 52 37 34 29 27 28 30 31 31 30 28 25 20 15 16 16 16
88 81 78 76 72 82 73 60 58 50 43 46 37 23 26 49 56 50 53 54 53 45 40 39 37 34 36 34 31 26 20 19 18
98 99 91 91 91 84 68 60 51 56 46 51 29 23 49 57 56 52 51 52 52 51 50 48 46 45 44 43 41 38 37 32 25
86 88 100 92 84 77 65 60 61 63 56 47 18 35 55 55 53 49 43 38 32 30 29 26 22 18 15 14 15 19 29 36 39
91 81 81 89 96 82 67 67 70 70 57 29 27 47 53 44 34 25 18 16 15 14 15 16 16 16 16 16 16 15 13 13 15
89 89 86 95 97 93 72 80 82 74 56 21 30 36 39 25 21 19 20 19 18 18 18 18 18 18 18 19 18 19 18 17 17
61 82 83 83 95 97 90 99 85 63 29 25 19 16 19 19 19 21 22 23 22 22 23 23 22 22 21 20 19 19 18 17 16
65 89 100 100 100 100 100 94 73 36 26 21 17 17 22 22 24 25 26 26 25 24 24 24 23 23 24 23 21 19 18 16 15
99 100 100 100 100 100 99 85 41 28 24 22 22 21 27 26 28 29 26 25 24 24 24 23 23 24 23 22 20 18 16 15 14
79 93 98 100 100 100 80 43 28 31 26 25 24 25 27 27 29 28 26 26 26 25 27 27 24 22 21 21 20 18 16 14 13
99 100 100 100 96 65 30 26 34 28 27 26 27 28 30 32 34 33 29 27 27 27 28 27 26 21 21 22 20 17 16 15 14
100 99 82 55 35 29 35 35 32 28 28 29 31 36 40 41 41 37 33 32 31 28 25 25 24 22 20 19 16 16 16 17 19
88 58 31 32 39 42 42 34 30 27 28 30 36 36 40 45 42 42 39 34 34 33 29 27 27 24 22 20 20 19 21 19 17
51 30 43 46 48 41 34 31 28 29 32 34 33 31 37 40 37 36 34 35 32 28 27 27 26 24 21 21 20 20 20 23 25

GFSFLT1_250_rhum_012.txt.gz
RH
42 42 43 53 48 40 42 39 40 39 50 73 86 54 38 36 35 35 31 27 25 19 14 17 17 17 22 27 28 27 31 30 32
46 40 41 47 48 55 44 49 49 72 98 84 60 52 42 41 36 33 34 30 24 16 17 23 30 47 50 57 50 43 40 40 45
65 57 50 49 50 49 58 91 100 95 81 70 61 46 43 45 38 31 31 30 23 21 35 47 55 55 44 38 43 53 54 54 62
72 70 66 67 66 67 67 96 94 91 81 68 68 53 49 46 36 38 32 26 21 29 42 37 39 32 29 30 30 30 30 32 33
81 77 75 82 88 93 100 100 100 99 91 86 74 55 48 42 38 34 29 22 23 36 32 30 26 28 29 29 28 26 25 24 21
100 98 100 100 95 94 100 97 98 91 82 76 68 57 52 46 42 34 26 25 38 45 44 39 36 32 33 34 33 32 31 30 24
100 100 100 100 100 100 88 77 80 76 78 82 67 64 53 54 42 37 26 32 53 55 47 46 49 46 45 44 45 46 44 41 38
100 100 100 100 100 100 100 91 90 95 91 77 72 64 62 57 46 34 31 46 62 55 47 44 43 42 39 34 30 28 27 28 30
100 100 92 89 86 89 96 98 97 84 78 80 77 71 64 60 52 31 32 50 50 40 35 25 18 15 15 16 15 15 16 16 17
78 82 80 76 79 75 92 98 84 78 77 84 78 83 72 68 56 26 39 48 30 19 17 18 18 19 19 20 20 18 18 20 20
70 69 74 78 79 69 88 84 85 79 86 82 71 89 90 70 42 22 29 28 17 20 22 22 22 22 22 23 22 22 22 22 22
79 82 93 78 72 71 66 75 84 94 75 72 93 99 93 68 31 22 16 16 19 22 23 22 22 22 22 22 22 22 22 22 22
38 44 58 62 61 55 51 59 72 94 98 100 100 100 95 50 29 18 17 19 19 22 24 24 25 24 23 24 23 23 24 23 21
24 49 59 66 94 91 92 86 94 100 100 100 100 97 65 31 23 21 22 21 22 26 25 27 27 27 25 24 23 23 24 25 25
33 65 88 96 100 100 100 100 100 100 100 100 99 70 41 27 24 26 24 25 27 29 29 29 30 30 28 28 28 27 25 25 24
28 28 29 29 40 59 76 93 100 100 96 94 65 37 30 29 28 29 27 29 30 29 29 31 33 33 33 32 30 29 29 26 24
38 29 29 48 80 100 100 100 100 92 75 46 29 30 32 29 33 31 30 29 30 31 30 31 35 33 32 31 30 29 25 23 23
42 30 31 60 77 97 100 84 69 39 31 32 40 38 32 31 30 28 28 28 29 28 29 34 34 31 30 31 26 23 22 22 22
33 28 30 38 55 90 71 46 30 33 49 51 42 34 31 33 37 39 35 34 31 32 36 36 33 31 31 27 22 21 20 20 20
30 28 27 28 46 63 45 35 45 56 41 37 35 33 33 35 36 40 44 38 39 36 35 34 32 30 30 28 26 23 24 23 23

GFSFLT1_250_rhum_015.txt.gz
RH
73 69 61 56 50 49 47 43 47 53 50 49 40 53 60 92 77 65 61 52 42 31 28 26 25 20 22 35 28 41 47 47 42
82 80 75 68 60 56 53 49 44 41 44 48 53 97 95 89 81 76 68 57 44 34 31 28 27 20 29 46 46 49 47 44 55
92 92 87 82 74 61 59 64 60 60 62 66 67 97 100 100 88 84 64 57 44 40 34 28 25 23 33 31 28 31 32 32 34
96 97 95 88 84 76 72 72 69 59 82 90 100 100 98 98 81 80 65 62 46 43 33 30 24 32 38 35 31 30 33 31 29
100 100 100 100 100 100 93 93 87 97 88 87 95 77 76 74 72 76 65 58 49 44 35 30 24 48 48 39 34 30 32 34 34
100 100 100 100 100 100 100 78 100 100 100 99 98 82 87 85 84 80 64 57 53 45 40 28 35 60 56 45 46 45 40 37 36
100 100 100 100 100 100 100 100 100 100 100 100 100 98 90 81 76 66 62 59 57 58 44 27 46 58 53 46 43 40 35 29 24
93 98 97 100 100 100 100 99 100 100 100 93 83 87 88 83 72 64 72 71 56 59 45 36 53 53 36 23 19 16 16 16 16
100 100 100 100 100 100 100 100 100 90 80 82 80 72 85 80 78 75 80 75 65 69 41 35 50 30 15 17 17 16 18 18 18
88 100 100 100 100 96 92 84 76 66 66 63 76 73 67 74 76 76 80 79 87 74 36 34 32 17 17 19 19 19 18 19 20
88 83 79 81 69 68 64 63 66 72 72 69 67 64 62 70 82 82 98 90 99 78 34 27 21 19 22 22 22 23 22 22 22
82 89 92 79 67 60 58 79 72 71 67 66 74 58 60 71 100 100 100 100 96 66 30 19 19 20 22 23 25 25 25 26 26
28 40 52 62 71 65 42 41 44 46 57 79 78 94 90 98 100 100 100 100 81 49 24 20 22 24 26 28 30 29 28 29 28
23 22 20 22 18 16 19 49 79 97 100 100 100 100 100 100 100 100 100 85 67 36 22 24 27 28 29 28 28 28 31 32 33
22 21 21 23 18 21 28 35 53 55 63 71 84 98 97 95 86 84 81 68 38 30 24 28 28 30 27 26 27 28 30 32 33
25 30 26 22 25 29 32 25 24 24 46 76 88 86 91 88 80 68 41 38 31 31 29 30 30 29 27 27 29 28 29 30 33
38 42 28 24 27 33 39 29 24 30 43 56 67 84 73 57 36 33 41 37 36 33 31 30 29 29 30 32 32 32 31 30 28
43 56 48 28 28 33 35 28 26 31 30 54 71 56 34 36 50 52 48 43 37 34 31 30 32 32 32 32 30 28 28 28 28
63 69 58 36 29 38 32 26 25 24 29 59 52 39 39 56 51 41 38 36 33 32 34 33 31 29 27 27 28 28 27 29 31
77 77 65 47 40 44 37 27 24 24 36 59 48 34 32 35 39 41 42 43 43 42 40 37 35 33 31 29 31 33 36 35 32

GFSFLT1_250_rhum_018.txt.gz
RH
53 48 61 72 73 76 73 68 62 60 52 46 40 39 41 43 42 51 72 100 100 96 81 73 56 44 39 36 30 24 23 33 40
83 74 71 75 86 83 83 82 79 76 66 59 53 54 53 64 69 78 100 99 97 78 59 56 52 45 39 34 29 26 28 36 27
92 87 91 88 88 90 89 90 90 89 81 64 67 74 70 64 90 86 84 83 65 67 67 71 53 47 44 34 30 27 43 39 35
100 100 99 97 98 100 100 100 97 95 89 81 82 82 81 99 100 94 84 88 72 82 78 68 48 52 44 34 30 34 56 48 40
100 100 100 100 100 100 100 100 100 100 100 98 95 97 93 100 100 100 100 96 94 88 80 57 54 54 48 40 29 42 55 49 46
100 100 100 100 100 100 100 100 100 100 100 100 100 100 100 100 100 100 91 87 83 85 77 68 53 58 54 46 30 52 55 52 46
94 100 100 100 100 100 100 98 100 100 100 100 100 100 100 100 100 88 74 60 68 72 80 71 61 65 69 60 36 54 46 37 27
34 64 100 98 94 100 100 100 100 100 100 100 100 100 100 100 95 78 62 63 65 68 77 75 74 70 81 73 39 46 28 18 16
21 24 30 58 81 88 100 100 97 100 100 100 100 100 90 66 63 62 57 62 70 67 76 85 78 95 93 82 43 32 19 17 18
20 21 22 25 31 39 68 95 98 100 100 97 92 84 62 54 60 69 69 63 76 82 77 85 94 100 100 76 43 25 21 18 20
18 20 25 33 43 47 54 50 75 87 82 83 67 56 57 45 71 79 70 70 71 70 98 100 100 100 100 71 40 22 21 20 22
18 21 27 29 33 44 58 68 70 75 77 73 60 58 55 46 44 62 87 84 100 100 100 100 100 100 93 61 33 23 24 25 27
16 18 24 26 26 25 26 27 28 28 26 30 30 25 43 72 85 91 100 100 100 100 100 100 100 96 78 55 30 22 26 30 31
16 16 20 22 23 25 25 24 22 20 20 17 20 29 40 60 68 68 89 93 98 92 88 84 84 80 71 50 29 22 28 32 32
21 18 18 20 21 23 23 23 20 18 18 20 24 23 24 25 28 49 63 79 87 86 84 73 54 48 49 38 28 26 29 32 34
38 27 28 31 21 20 21 21 22 20 22 26 31 28 26 26 29 36 51 60 57 45 34 31 38 48 42 32 32 33 32 33 31
28 29 27 28 21 22 21 27 36 26 22 24 30 29 26 22 22 31 43 42 36 32 41 45 48 45 41 42 38 36 35 34 34
29 29 29 37 34 34 34 42 39 41 28 26 25 22 24 24 23 25 31 40 34 38 48 50 46 42 40 38 38 39 38 37 35
29 34 31 40 48 56 52 50 56 57 46 29 32 28 23 23 24 23 34 40 34 32 33 35 36 35 35 34 32 32 31 29 30
26 29 30 33 56 66 70 79 79 74 60 44 44 39 28 24 26 30 29 38 41 37 34 33 32 32 31 30 32 34 36 38 40

GFSFLT1_250_rhum_024.txt.gz
RH
18 19 22 23 30 40 48 50 53 70 57 52 56 60 66 52 56 64 47 51 53 59 56 46 47 52 69 99 63 62 71 78 68
23 23 24 25 30 35 45 45 56 68 82 87 71 76 72 78 80 76 81 80 81 67 73 66 69 78 86 100 82 87 86 82 67
29 27 27 30 36 39 39 46 64 62 65 85 100 100 96 98 98 96 99 100 100 100 95 94 97 84 100 98 98 91 98 86 65
30 30 28 27 30 31 35 54 60 79 82 100 100 100 100 100 100 100 95 100 91 85 87 99 91 100 100 100 100 95 98 70 57
28 26 24 24 28 25 30 38 46 51 70 73 100 100 100 98 89 82 66 66 91 100 93 94 78 84 85 92 100 100 83 61 55
22 20 18 20 24 30 36 47 51 50 50 53 64 66 67 72 68 77 99 100 98 88 95 93 84 69 92 96 100 95 79 62 60
20 20 18 16 18 22 27 38 39 50 54 56 59 60 66 57 58 79 67 94 100 99 94 79 92 76 93 100 90 77 61 62 74
19 17 16 15 15 17 22 25 29 32 37 37 38 37 44 41 40 46 55 99 89 100 84 84 95 83 97 86 73 56 58 60 72
20 16 14 13 13 16 20 21 24 24 23 23 22 20 19 19 19 19 22 28 34 36 50 60 55 57 55 54 53 46 48 48 70
17 14 13 14 15 16 16 16 16 16 17 19 19 19 20 18 17 20 23 27 36 48 55 69 62 52 49 51 42 33 64 78 87
14 12 14 14 15 16 19 22 21 20 21 20 17 17 20 18 18 22 26 28 29 28 29 27 25 28 29 53 59 70 87 96 99
14 14 14 15 16 15 15 19 25 25 23 22 21 18 17 19 19 21 23 24 23 25 23 22 20 25 24 32 30 44 57 84 100
22 21 18 23 24 22 21 22 24 22 21 20 17 17 18 19 20 21 22 24 22 22 22 24 22 25 26 25 27 30 41 61 79
34 30 30 32 27 23 23 22 21 22 25 25 21 20 21 21 22 22 24 23 24 23 23 23 22 30 31 31 31 31 35 46 59
38 35 31 30 29 28 26 26 24 23 23 28 32 29 32 34 30 26 25 24 24 24 22 22 24 28 38 32 32 33 32 44 47
42 42 57 57 42 31 27 29 30 28 23 20 25 32 39 44 43 42 43 37 30 27 27 29 30 26 32 35 32 31 28 32 39
87 86 76 52 46 44 39 35 34 32 30 24 20 20 29 37 47 52 52 48 40 32 29 31 40 36 33 40 44 34 26 26 33
76 66 64 64 56 48 40 34 34 35 36 36 31 29 30 32 32 40 49 52 45 37 37 49 53 53 51 41 41 49 37 30 30
100 82 70 65 67 54 44 34 33 32 31 35 34 33 32 32 39 41 50 59 62 60 61 65 72 74 68 64 54 47 52 48 38
89 92 69 66 74 69 53 43 37 35 35 34 34 33 31 32 33 38 39 56 76 82 79 76 82 89 100 95 77 70 61 57 55

GFSFLT1_250_rhum_027.txt.gz
RH
22 25 26 27 26 26 26 26 29 29 30 35 45 43 39 44 47 62 68 66 56 58 85 91 93 89 86 81 74 54 58 72 84
28 26 29 31 30 29 30 30 32 32 34 35 39 41 40 46 57 59 82 89 90 87 87 77 82 100 100 100 98 93 100 96 98
32 26 32 32 32 34 33 32 32 26 27 27 28 35 40 42 57 74 55 71 86 88 84 85 75 72 76 86 81 67 80 77 74
30 30 29 32 31 28 27 26 23 23 24 25 30 32 33 38 46 56 71 65 68 69 71 67 59 63 72 77 84 76 85 83 69
26 27 28 27 24 23 22 20 20 20 21 19 24 27 33 43 42 48 48 53 53 69 77 70 70 63 64 89 96 100 87 86 68
26 25 27 26 25 22 21 20 17 18 18 17 20 18 25 29 35 35 47 52 49 50 50 51 56 76 83 73 100 99 72 86 100
27 25 24 24 23 22 24 24 21 21 17 16 14 14 16 19 23 30 33 35 34 32 32 31 30 41 48 64 75 87 85 69 53
32 31 28 27 27 26 24 23 21 19 17 14 14 14 16 18 20 22 24 22 21 20 19 18 17 18 21 22 22 29 44 50 69
32 32 30 31 28 21 20 20 18 16 15 14 14 15 16 16 16 15 16 19 18 19 18 16 19 23 29 39 43 44 44 44 39
31 29 27 26 22 21 19 17 16 15 14 15 15 16 18 18 17 18 21 22 18 18 18 18 19 23 26 25 25 23 21 19 34
24 23 22 22 20 18 16 14 14 12 14 16 17 18 18 19 23 24 22 22 23 20 19 20 21 22 24 24 24 23 20 20 24
26 24 22 23 20 17 15 15 14 13 14 20 23 21 20 21 22 20 19 19 19 18 19 21 22 23 24 24 22 22 22 20 23
36 31 28 28 29 26 23 22 25 23 21 24 23 23 23 23 22 21 23 23 20 21 23 24 25 25 27 27 24 22 21 22 28
55 47 44 38 38 36 36 34 30 27 27 26 26 24 22 22 22 22 21 20 22 23 29 35 34 31 27 27 26 25 25 24 27
75 73 72 49 39 35 36 38 42 45 44 37 30 28 28 28 26 27 25 20 21 26 33 46 48 47 44 37 32 28 27 30 29
64 60 54 80 75 78 69 70 72 54 51 47 44 38 34 31 30 32 31 26 23 22 26 37 48 60 62 57 46 37 33 35 38
91 97 96 90 95 95 84 66 57 55 53 49 42 39 33 30 33 35 34 34 33 32 32 32 35 47 61 66 56 47 46 49 49
89 93 85 81 85 80 74 71 67 70 63 54 50 44 38 33 33 33 35 36 37 35 31 29 32 37 45 59 64 64 60 67 71
84 89 99 100 98 88 88 79 77 64 55 55 52 51 46 39 39 38 37 38 38 38 37 37 35 35 36 39 51 66 70 71 78
80 93 100 100 100 89 84 71 64 68 70 69 71 60 50 49 45 51 53 48 40 41 41 41 42 42 39 40 46 54 69 83 83

GFSFLT1_250_rhum_030.txt.gz
RH
24 25 24 24 25 25 24 22 24 30 31 28 28 26 25 24 21 20 20 21 29 36 36 37 37 39 75 92 83 78 80 58 72
28 27 27 25 24 24 27 23 23 26 28 26 23 22 21 20 19 19 19 18 19 24 26 27 43 51 48 50 58 72 56 58 61
31 31 27 25 26 25 25 24 26 26 27 24 22 21 21 20 20 20 18 18 17 21 22 32 32 39 46 54 53 65 80 62 50
34 31 27 28 27 26 24 23 23 23 24 25 25 23 23 21 18 18 17 16 17 16 20 29 39 38 37 60 50 52 63 57 55
33 32 29 25 24 22 21 21 21 21 24 21 21 21 22 20 19 17 16 16 16 16 16 21 25 31 33 37 38 36 33 33 63
29 23 22 23 23 21 20 27 27 26 27 24 24 22 18 17 18 18 18 16 14 14 15 18 23 27 27 25 22 22 20 18 19
25 25 28 29 28 26 27 25 24 24 22 21 24 22 19 18 17 16 16 15 14 14 15 18 20 20 19 20 19 19 16 20 21
31 31 31 32 30 27 25 23 24 24 22 22 21 20 21 18 17 14 14 14 14 15 16 16 16 18 18 17 19 19 19 22 26
48 41 38 34 30 28 27 25 22 23 23 21 20 19 19 17 15 14 13 14 15 18 20 21 20 22 25 23 19 19 20 20 23
48 42 38 36 35 32 30 27 23 22 22 21 20 19 17 15 13 13 13 15 17 17 16 18 22 24 22 23 22 19 20 22 23
50 46 46 39 32 29 25 24 22 24 25 24 24 22 19 18 16 16 16 18 18 21 21 24 23 22 22 20 19 19 20 22 24
55 51 45 38 34 31 33 34 34 37 35 31 29 29 30 28 24 22 23 25 24 21 20 21 22 22 23 22 21 21 23 24 24
56 53 52 48 49 48 53 54 50 51 44 41 36 33 34 33 33 32 32 29 26 24 23 23 22 24 22 24 27 29 31 29 26
67 70 66 55 59 71 70 70 61 49 43 51 52 52 55 48 44 43 40 37 34 33 31 29 27 25 24 22 23 28 34 40 40
70 60 52 50 54 55 63 72 83 80 82 78 74 71 50 55 48 44 42 39 35 30 27 27 32 32 30 28 25 24 26 34 41
67 62 57 52 59 63 64 76 78 76 69 68 56 57 61 59 56 53 47 46 44 35 30 30 30 30 33 37 37 34 34 36 42
69 74 73 70 72 74 76 75 71 76 66 66 71 63 64 64 64 53 52 53 55 44 39 36 37 37 36 36 37 41 45 42 40
86 87 93 86 76 76 72 89 82 72 66 66 76 69 66 58 57 65 70 67 56 54 51 42 41 44 43 43 40 37 37 40 42
86 82 97 83 76 85 84 90 78 87 94 70 74 79 77 72 71 71 75 75 62 55 58 54 47 54 59 57 53 47 42 42 41
95 88 86 94 98 100 100 100 100 100 85 91 79 87 80 80 84 78 89 81 81 71 61 59 53 60 64 69 72 67 66 63 59

GFSFLT1_250_rhum_033.txt.gz
RH
22 24 26 26 25 26 26 27 28 25 24 24 25 23 23 24 23 22 20 21 20 19 18 18 16 16 17 18 22 23 32 32 36
27 27 28 29 32 32 29 28 26 25 26 25 24 22 21 20 20 19 19 18 18 21 19 19 17 17 16 19 18 21 21 40 36
37 36 37 37 36 35 32 30 24 24 26 24 21 20 18 18 18 18 18 17 20 18 17 18 17 17 16 16 16 16 19 27 29
48 45 42 38 36 35 33 31 30 26 23 21 19 18 20 19 20 22 21 23 21 18 17 17 16 15 15 14 15 14 16 22 28
54 48 44 40 37 36 31 26 22 25 27 25 24 24 22 21 20 19 21 20 18 17 17 18 16 14 14 14 14 15 18 22 22
55 48 44 37 33 31 29 26 26 26 28 28 24 22 22 22 19 20 20 19 18 18 16 16 16 15 14 13 14 14 15 16 17
49 45 42 40 35 34 33 32 31 32 30 26 24 26 24 23 22 20 19 19 18 18 18 18 15 14 14 16 18 19 17 18 20
54 47 43 43 44 47 41 40 43 33 27 26 27 26 22 20 20 20 21 20 20 18 18 15 14 14 16 18 17 18 20 24 24
46 41 34 34 35 35 36 36 36 35 32 31 29 23 21 22 24 24 26 24 23 22 19 16 15 16 18 19 20 23 24 23 22
40 34 35 40 46 45 47 50 45 46 38 32 26 25 27 32 36 34 32 29 27 26 25 25 24 23 23 22 20 19 20 21 24
42 51 55 62 63 60 57 60 50 44 36 30 31 33 39 44 43 38 36 34 33 32 32 35 34 32 29 26 24 23 21 21 25
57 60 71 76 71 70 62 53 47 44 42 37 48 52 52 49 47 49 47 45 46 44 42 40 38 35 32 31 30 28 25 25 25
72 73 85 89 81 71 55 54 52 46 44 42 52 69 68 63 65 63 61 59 47 45 40 38 35 32 33 29 26 25 27 30 29
92 96 92 89 72 65 61 60 55 52 46 48 58 60 60 62 62 56 47 51 49 43 39 38 38 38 41 35 30 28 27 28 31
97 95 90 83 74 73 72 67 63 46 44 49 57 66 56 61 66 56 49 48 51 48 47 45 44 41 43 38 38 34 33 32 32
93 77 79 80 85 83 81 77 66 68 64 66 59 62 53 60 70 63 55 52 58 67 64 60 50 52 48 40 42 45 40 39 40
93 91 96 96 89 86 81 90 99 84 88 77 75 66 67 63 62 74 64 58 61 75 72 68 60 66 64 54 51 50 50 45 48
77 73 91 100 96 98 95 96 94 93 94 82 65 90 79 81 76 66 73 72 70 71 76 71 69 76 71 66 58 57 55 49 49
100 99 98 99 100 100 100 100 100 99 100 93 94 100 98 99 99 92 82 85 79 73 72 70 77 84 81 80 80 70 60 58 52
97 95 100 99 100 100 100 100 98 94 100 99 100 100 100 100 98 95 94 97 86 78 74 74 68 77 87 92 94 78 72 63 66

GFSFLT1_250_rhum_036.txt.gz
RH
24 25 26 26 28 27 26 25 24 27 30 31 30 27 25 24 24 24 22 20 18 17 17 18 18 20 20 23 18 17 18 18 16
35 34 32 30 31 34 33 33 33 33 34 34 33 31 27 24 25 23 20 19 19 20 19 18 17 19 20 19 17 17 18 16 15
48 49 48 44 43 45 43 41 38 38 36 36 35 30 26 23 24 25 24 23 22 21 22 22 20 19 19 18 18 17 16 16 15
54 59 56 51 53 55 51 51 46 42 37 34 33 28 25 26 24 24 26 24 22 22 21 18 18 18 18 17 18 17 16 16 15
69 62 65 60 63 66 61 54 47 43 36 34 32 31 30 30 29 29 25 24 22 22 20 19 18 19 20 20 17 17 17 16 15
51 50 52 54 54 59 54 48 43 40 38 36 37 40 38 34 30 26 24 25 23 20 19 17 18 20 20 20 19 18 16 14 14
59 53 50 52 53 50 49 47 46 46 41 37 32 27 32 30 25 28 29 26 23 21 19 22 24 24 24 23 21 19 17 15 14
29 28 27 25 24 27 33 32 29 24 25 27 27 30 31 34 38 34 30 26 26 27 34 31 32 29 28 27 26 24 27 24 20
24 24 25 24 22 21 26 29 26 28 33 38 35 36 46 42 39 35 28 28 31 40 37 38 36 34 33 30 30 31 29 29 26
27 26 26 25 27 33 34 37 45 42 42 41 46 50 49 38 34 31 30 32 40 47 45 44 46 46 43 40 38 37 33 32 32
36 36 34 39 45 47 47 49 51 50 57 55 59 51 45 41 38 35 36 39 49 53 53 49 44 43 42 37 34 32 30 30 30
44 47 51 52 58 64 67 66 65 68 64 62 58 51 47 43 43 40 40 42 41 41 57 55 46 43 42 39 35 36 32 32 33
56 66 76 74 85 89 82 79 77 79 87 77 66 60 54 49 49 48 42 42 45 50 51 52 50 42 41 45 46 42 38 38 35
58 79 91 98 93 86 90 86 86 88 93 81 74 71 72 68 59 55 56 54 47 55 55 46 47 52 54 53 57 51 41 41 39
87 96 85 89 91 92 96 93 98 93 97 89 80 76 80 76 76 73 76 78 58 62 65 63 64 58 62 62 67 56 46 43 41
92 89 84 88 92 93 100 100 100 100 100 100 90 88 99 100 100 87 89 83 73 77 77 78 68 68 66 60 60 57 52 51 51
92 100 100 99 99 99 87 80 79 89 98 100 100 100 98 100 97 92 93 97 82 86 100 93 90 70 69 63 65 60 59 55 63
97 98 100 99 98 98 97 96 90 80 81 96 97 100 100 96 91 96 100 100 100 97 100 100 95 85 75 61 66 68 67 65 68
92 89 97 100 100 92 90 90 89 88 91 95 100 100 100 100 100 100 100 100 99 100 100 100 100 92 84 72 63 57 73 74 65
100 100 100 100 100 100 100 100 100 100 100 100 99 100 100 100 100 100 100 100 100 100 100 100 100 100 87 86 71 65 76 77 68

GFSFLT1_250_rhum_039.txt.gz
RH
22 24 25 29 34 36 40 42 39 36 32 35 36 38 35 34 34 35 35 31 28 24 25 26 25 23 22 21 21 20 21 21 19
26 30 33 38 40 42 46 48 49 45 43 44 39 42 45 41 39 36 37 31 26 26 27 27 25 24 23 22 20 19 18 18 18
39 44 48 53 56 61 66 64 53 53 49 52 54 53 47 43 40 34 33 32 31 34 34 32 29 25 23 22 20 17 16 16 16
55 60 64 63 60 65 64 63 53 45 45 48 53 49 46 43 41 38 36 36 37 38 34 29 27 26 24 20 19 18 18 18 19
56 56 52 47 64 67 59 59 54 52 55 52 53 48 45 44 43 42 39 31 26 29 28 28 30 29 24 22 22 22 25 26 25
50 55 57 63 67 56 42 36 34 31 28 24 31 36 37 32 25 22 22 25 28 34 38 36 29 23 24 29 31 31 30 28 28
96 90 78 59 48 41 30 26 25 23 23 21 20 21 25 23 25 31 28 31 32 39 31 28 24 22 26 36 37 38 37 36 32
60 55 51 41 33 25 23 25 24 24 24 23 25 26 31 32 36 34 32 34 40 38 34 29 26 27 33 40 43 46 44 41 39
49 39 34 32 29 31 34 33 33 32 30 29 34 36 38 38 40 41 40 40 43 39 41 34 33 34 30 37 47 42 43 43 38
36 33 35 34 34 36 39 42 37 35 38 41 49 52 54 51 56 52 51 51 49 46 44 39 39 38 36 39 41 45 43 39 37
42 43 40 40 38 40 42 40 39 41 44 48 52 57 65 72 70 67 63 58 58 55 48 48 45 48 44 47 50 47 44 40 40
47 42 44 47 47 51 49 45 47 46 51 66 72 88 86 85 78 71 70 63 65 60 58 54 49 54 54 52 55 48 52 50 48
58 63 62 53 54 54 51 54 60 61 76 91 98 89 97 92 88 86 80 74 72 72 68 60 56 52 56 64 62 52 53 56 56
66 65 66 67 58 64 58 54 61 71 81 82 88 85 98 88 89 83 82 92 93 87 79 74 61 57 58 80 77 70 57 52 56
64 65 64 69 88 77 65 77 87 90 93 95 100 100 100 100 100 99 98 99 94 89 83 80 80 75 77 88 90 86 72 62 56
68 60 58 72 98 100 94 88 96 100 94 96 91 82 92 82 89 79 93 100 96 94 100 95 96 83 100 99 99 90 84 82 78
85 100 92 94 92 94 94 96 97 97 98 91 93 88 93 97 89 88 98 100 100 100 100 100 100 100 100 99 100 100 100 78 81
93 86 78 95 100 96 94 98 94 86 94 94 87 87 85 86 87 96 99 100 100 100 100 100 100 100 95 100 100 100 98 95 89
71 68 88 92 96 94 98 93 98 93 97 97 100 99 100 100 100 100 100 100 100 100 100 100 100 99 100 100 99 100 99 99 95
66 81 92 95 91 100 100 100 100 100 100 100 100 100 100 100 100 100 100 100 100 100 100 100 100 100 100 97 100 100 100 100 100

GFSFLT1_250_rhum_042.txt.gz
RH
21 21 19 19 21 23 28 39 48 50 52 57 59 59 49 46 44 47 50 49 46 45 41 36 35 34 34 35 37 36 30 26 24
24 22 25 30 33 41 49 55 65 61 60 57 53 51 51 44 40 44 46 45 47 43 41 40 39 37 32 29 31 29 27 24 22
58 58 58 58 62 64 63 58 54 48 47 55 49 41 39 37 40 38 39 40 44 44 44 34 25 25 26 30 32 30 28 23 20
58 52 46 45 42 44 50 50 52 54 59 55 44 37 30 27 24 22 20 20 22 24 23 25 28 28 32 32 30 28 23 20 21
50 47 45 39 42 50 65 80 74 66 50 42 37 30 24 21 21 21 21 21 24 23 25 32 24 33 40 37 30 24 23 24 28
38 38 40 44 52 74 79 62 53 46 36 28 25 23 24 22 25 25 24 26 30 33 35 30 31 38 40 34 29 28 28 29 36
39 44 53 58 78 78 62 50 37 32 29 29 30 31 28 30 30 31 34 37 37 38 37 39 38 42 40 37 33 34 33 33 38
57 68 82 83 73 63 42 31 26 27 28 30 30 33 34 33 35 34 37 39 38 47 50 48 47 43 43 41 42 39 36 37 36
87 89 81 73 61 43 30 28 35 38 36 32 33 37 37 37 40 40 44 46 52 67 66 59 52 46 47 49 53 43 42 40 39
90 80 68 52 35 30 30 35 36 36 38 37 38 42 40 38 42 43 57 77 76 81 70 62 59 64 58 57 51 46 43 41 44
65 53 42 37 37 38 42 44 48 51 45 43 46 46 45 46 54 57 63 70 77 87 75 71 68 68 68 58 51 51 59 56 55
61 54 50 57 55 54 51 52 51 54 59 57 53 68 61 65 64 69 85 88 80 86 87 88 77 78 75 64 57 56 56 64 72
62 67 65 54 50 49 48 48 51 52 56 72 86 89 83 100 96 91 89 89 90 95 100 100 96 86 75 70 67 53 71 67 76
61 57 56 47 45 44 45 48 55 68 83 97 90 98 89 74 93 100 100 100 99 93 95 96 98 93 88 75 80 71 67 80 78
59 63 57 54 49 48 45 51 77 100 100 69 84 100 100 100 100 99 95 88 89 88 76 87 99 98 100 94 88 92 85 83 94
66 56 54 48 50 46 41 52 90 98 96 82 100 100 100 100 100 100 95 85 85 96 89 82 99 98 100 99 97 100 100 100 97
63 59 53 54 47 47 56 80 83 82 60 77 81 86 76 72 75 90 93 100 100 97 100 100 100 100 100 100 100 100 100 98 85
54 54 56 58 54 53 58 68 55 55 66 72 81 82 93 98 100 100 100 100 100 100 100 100 100 100 100 100 100 100 100 92 84
44 43 61 64 61 56 69 49 58 70 80 81 100 100 100 100 100 100 100 100 100 100 100 100 100 100 100 100 100 99 98 99 100
48 45 49 47 44 59 58 52 57 64 78 99 99 100 100 100 99 98 99 99 99 100 100 100 100 100 100 100 100 100 100 100 100

GFSFLT1_250_rhum_045.txt.gz
RH
23 23 24 29 35 38 43 49 50 50 47 49 49 48 42 36 42 38 33 30 29 26 23 22 21 21 23 23 23 25 25 24 22
27 30 40 47 50 54 54 49 45 36 31 33 37 45 48 50 44 34 29 25 23 20 20 20 20 20 23 24 28 29 24 26 27
30 38 42 45 51 52 46 41 37 31 37 44 56 60 55 41 33 26 22 23 23 22 24 25 24 23 30 34 34 31 32 31 28
47 49 53 53 47 41 37 34 36 35 48 62 68 56 42 30 23 22 25 25 26 27 26 27 28 30 34 39 41 38 40 34 32
59 57 44 41 41 37 36 42 48 64 76 77 57 42 27 22 23 26 25 28 31 29 30 31 36 36 34 43 56 50 41 36 35
66 57 52 47 40 36 45 54 73 79 76 64 48 34 25 24 25 32 33 35 35 34 34 37 38 43 50 56 65 56 47 44 41
46 44 44 41 37 47 57 75 78 76 63 45 30 27 26 27 30 37 40 41 42 38 38 40 43 59 70 66 71 55 56 52 44
40 39 39 39 49 66 82 85 74 54 41 34 31 33 35 39 40 42 43 42 42 42 43 43 48 60 65 70 71 66 54 52 56
42 42 46 62 78 82 84 67 56 46 39 37 42 44 45 39 38 43 46 46 54 59 65 65 65 75 65 64 64 62 66 63 56
46 55 79 87 88 83 67 58 51 46 47 44 43 38 38 41 42 50 60 91 98 94 75 71 78 67 78 80 79 78 65 57 48
90 100 100 96 86 77 67 57 54 47 45 46 45 42 39 43 63 83 98 75 100 100 85 81 90 99 98 100 100 94 75 68 55
100 100 95 88 72 64 56 52 44 45 44 45 44 44 40 48 83 100 100 67 94 100 100 99 100 100 100 88 85 92 85 76 64
98 87 77 64 63 61 66 62 57 55 46 44 41 44 44 46 90 98 100 96 100 100 100 99 100 100 89 94 98 92 66 70 71
76 70 66 74 68 71 56 54 53 50 43 43 46 48 51 58 86 100 82 83 96 89 87 93 100 100 89 88 94 100 81 83 77
68 66 85 100 95 78 69 58 51 46 45 49 55 58 60 74 67 53 64 69 84 87 66 79 77 79 93 99 100 100 82 92 98
98 100 100 87 83 81 64 53 55 52 49 46 54 50 48 65 54 48 57 76 89 99 100 100 100 100 100 100 100 100 98 100 100
99 99 91 78 69 59 60 54 51 48 45 44 47 45 47 64 72 97 100 100 100 100 100 100 100 100 100 100 100 100 100 100 100
82 85 76 63 66 68 56 53 53 48 45 46 44 45 56 82 98 100 98 89 91 97 94 98 100 100 100 100 100 100 100 100 100
63 55 63 67 71 57 57 53 48 47 51 50 52 56 66 76 84 86 100 98 100 100 98 92 88 90 100 100 100 100 100 100 100
70 58 55 59 62 60 57 48 43 47 56 69 86 100 95 94 96 88 83 71 79 84 83 90 94 100 100 100 100 100 100 100 100

GFSFLT1_250_rhum_048.txt.gz
RH
28 24 25 26 28 32 40 45 50 51 48 40 33 31 31 31 35 48 45 40 35 25 21 20 22 25 28 26 25 24 28 32 34
26 27 26 26 29 33 40 51 51 47 36 33 35 35 34 39 57 58 51 40 26 21 22 20 24 30 31 29 29 29 32 36 44
28 27 28 29 41 50 60 49 39 36 36 36 40 33 43 52 58 54 34 26 25 24 25 33 35 34 32 35 36 35 38 43 50
30 31 34 41 46 58 62 44 41 40 38 40 39 50 56 61 49 38 29 30 32 32 32 35 35 35 35 37 40 42 41 48 66
37 57 55 50 51 51 42 39 38 37 39 39 44 63 67 56 41 31 28 32 34 36 35 35 37 38 46 44 44 47 60 62 85
69 59 53 44 42 40 39 39 39 39 43 57 70 71 57 48 37 35 35 37 34 35 36 42 59 69 73 65 64 57 62 76 74
40 42 41 45 43 40 40 42 44 51 70 75 76 64 50 38 35 37 36 38 38 37 39 60 64 72 84 93 72 79 65 75 77
44 46 50 46 43 41 44 52 59 78 85 82 73 46 42 39 40 41 44 41 40 41 46 67 91 64 92 99 70 68 80 83 83
60 64 61 54 45 48 59 73 91 93 88 70 47 40 42 46 46 43 41 40 44 43 48 83 96 76 60 99 85 90 87 90 100
72 68 59 52 56 76 92 97 94 83 66 48 46 49 50 49 50 45 43 45 47 51 60 100 82 91 81 99 97 90 98 100 98
70 61 58 66 98 100 100 94 78 64 58 55 48 48 51 52 52 46 47 46 46 50 72 100 100 93 73 100 100 100 100 98 81
67 69 89 100 100 100 98 84 71 71 68 59 54 57 56 52 45 49 48 48 49 48 58 88 78 75 93 98 98 78 88 89 97
78 93 100 100 100 96 85 83 81 82 80 67 70 56 56 51 51 52 49 50 49 50 73 68 54 68 68 85 86 74 81 85 90
100 100 100 100 98 90 86 78 80 83 79 72 62 58 59 54 55 50 48 51 52 48 57 63 70 78 80 84 86 92 99 95 99
100 100 100 98 89 91 89 92 83 89 79 63 58 64 60 56 53 48 52 58 55 56 70 77 88 94 96 100 100 100 100 100 100
100 96 94 85 83 87 89 80 79 84 81 66 57 56 56 52 45 45 54 63 69 91 100 100 93 100 100 100 100 100 100 100 100
100 100 100 94 85 79 71 73 76 86 74 58 53 54 52 50 51 51 56 70 83 92 90 91 94 99 100 97 95 100 100 100 100
100 100 100 100 79 68 66 70 68 68 64 57 55 56 50 50 61 58 64 78 97 100 100 100 100 100 100 100 100 100 100 100 100
75 82 67 64 69 77 70 73 65 62 60 59 58 51 49 52 66 94 98 98 93 84 78 84 98 100 100 100 100 100 100 100 100
82 68 66 64 67 71 71 63 68 60 58 62 51 58 61 84 85 91 96 73 62 45 50 49 62 74 77 90 100 100 100 100 100

GFSFLT1_250_rhum_051.txt.gz
RH
34 30 24 23 24 25 28 31 41 48 49 51 39 32 32 34 32 32 45 56 49 37 30 28 30 33 32 30 31 32 37 41 41
31 27 24 25 27 29 29 36 43 51 53 42 35 35 36 35 30 46 56 55 41 31 29 30 36 35 33 33 35 41 50 53 53
29 27 27 27 31 34 41 47 48 42 39 38 36 37 38 36 44 63 59 42 32 30 32 35 37 36 38 36 39 61 61 70 66
34 33 32 32 35 55 64 52 43 40 39 38 38 42 41 45 64 66 46 34 31 31 31 38 37 36 38 40 52 67 68 71 81
36 36 38 67 72 48 41 39 38 41 42 40 40 45 50 65 69 59 40 34 33 37 38 36 36 38 40 44 64 96 68 93 97
51 64 72 52 42 38 38 42 52 52 47 45 54 54 75 78 64 47 40 39 39 44 39 40 43 44 41 44 55 98 94 60 100
49 51 46 41 44 44 53 63 59 49 47 59 65 86 88 74 58 47 45 47 45 44 45 45 47 46 43 44 61 79 90 66 95
44 45 46 42 45 51 64 65 54 54 61 84 90 88 79 66 55 50 47 52 56 51 49 52 50 47 46 48 66 82 92 82 100
53 53 54 52 53 66 70 59 55 67 82 92 92 86 77 64 59 55 56 60 55 51 54 52 52 48 52 53 94 89 73 71 99
63 62 62 68 72 68 63 62 83 91 96 95 88 80 71 68 63 65 63 58 55 56 54 50 47 51 54 69 96 78 60 74 83
81 74 71 70 66 67 65 87 100 100 99 90 83 79 70 74 69 58 61 62 58 55 54 50 52 63 62 54 89 100 73 80 86
77 73 74 70 74 78 87 99 100 98 94 82 75 65 62 60 56 62 73 62 55 58 52 49 47 54 61 70 66 62 76 90 81
89 83 77 74 82 88 100 100 100 98 82 74 65 61 58 56 62 71 68 59 58 54 50 48 49 52 55 54 64 89 93 86 95
86 81 82 86 96 100 100 100 100 90 81 72 64 58 52 66 76 71 64 62 52 49 50 55 54 56 69 89 100 100 100 100 100
87 83 88 93 100 100 100 100 96 94 82 69 64 62 70 83 73 67 65 57 52 46 57 66 81 96 98 98 100 100 100 100 100
81 91 94 100 100 100 100 100 98 90 76 68 72 71 80 76 67 64 60 53 44 58 82 86 100 100 100 100 100 100 100 100 100
100 99 100 100 100 100 100 95 87 81 77 80 72 79 81 80 68 63 54 44 41 53 78 93 94 99 88 70 90 99 100 100 100
100 100 100 100 100 100 100 97 84 81 84 84 78 74 86 77 67 58 46 41 62 77 84 76 64 59 54 56 57 72 94 98 98
100 100 100 100 100 100 97 88 83 83 91 82 84 82 74 69 60 44 48 64 77 65 49 33 38 40 38 41 44 49 95 66 80
85 82 93 96 85 80 77 82 88 87 86 82 90 83 72 61 42 40 48 56 54 36 33 33 37 38 42 49 46 56 65 100 88

GFSFLT1_250_rhum_054.txt.gz
RH
30 29 28 26 24 25 26 27 29 30 41 46 42 38 36 36 38 37 36 39 52 56 44 36 32 28 30 29 34 38 40 38 45
33 29 30 29 28 29 28 30 31 45 51 41 37 35 37 44 38 39 40 51 63 59 44 36 31 30 34 34 40 42 42 39 42
32 30 32 35 34 33 32 35 58 53 41 37 36 39 45 39 38 37 45 64 64 56 43 36 34 36 40 38 44 43 42 40 39
31 33 36 37 37 36 45 74 53 39 37 38 45 50 42 41 42 48 57 63 61 53 41 38 39 47 44 48 50 46 44 41 42
32 35 36 43 48 64 65 50 42 38 41 44 56 48 43 47 52 57 63 71 60 50 42 44 46 53 55 54 50 44 50 47 48
49 45 45 44 47 50 47 43 38 43 47 58 52 50 50 62 59 66 73 69 58 48 48 55 58 58 64 54 48 44 45 48 53
58 58 58 54 50 47 48 48 49 53 66 58 55 54 61 78 80 86 73 66 53 51 55 53 58 64 58 49 49 47 50 50 51
58 56 55 52 49 52 56 56 59 70 61 58 62 65 72 86 80 80 73 60 58 54 51 59 65 61 56 51 47 48 58 61 56
54 53 52 51 54 62 66 64 64 61 60 59 67 75 92 87 86 78 67 62 57 50 56 65 66 60 56 51 44 51 63 79 69
56 56 54 54 60 72 70 64 65 66 55 66 76 90 89 85 79 74 66 61 54 54 68 69 68 63 53 47 42 53 58 78 80
58 61 61 62 63 65 67 81 77 62 65 71 86 93 86 87 82 72 66 58 59 68 72 70 70 60 50 42 47 58 62 68 74
75 74 64 59 58 65 93 84 69 67 74 88 97 96 95 83 78 74 64 64 70 73 75 72 67 52 47 41 51 60 61 70 78
74 71 65 64 75 100 89 77 71 68 79 97 95 93 89 84 81 70 66 72 77 77 77 74 61 50 43 46 68 92 100 100 100
76 71 72 87 100 93 83 75 73 87 92 94 89 84 90 86 76 76 76 83 83 80 77 65 54 46 42 57 77 100 96 93 100
88 96 99 99 93 86 83 88 93 92 86 88 87 87 87 85 84 83 92 87 80 84 70 59 49 44 56 62 90 67 52 54 76
92 98 100 94 89 92 92 97 95 90 88 84 93 86 91 87 90 93 90 88 87 80 67 54 47 45 46 62 41 44 47 42 44
89 96 100 100 100 100 100 93 86 96 93 83 84 96 94 95 97 92 93 94 87 69 60 49 44 48 38 33 36 30 32 35 39
97 92 90 98 100 100 100 98 99 100 100 100 100 98 96 100 99 98 96 88 71 65 50 49 44 39 41 33 27 29 39 44 48
100 100 100 100 100 100 100 100 100 100 100 100 100 93 97 96 92 94 93 77 67 56 54 50 47 36 28 27 34 37 37 36 34
100 100 100 100 100 100 100 100 100 100 100 100 96 100 95 85 81 84 78 67 55 47 50 42 34 26 26 35 35 31 32 37 41

GFSFLT1_250_rhum_060.txt.gz
RH
70 62 50 40 36 36 39 39 34 29 28 29 30 35 49 44 39 34 32 38 39 36 33 31 32 32 38 49 46 51 52 52 49
70 52 45 40 38 41 47 43 34 30 32 30 36 49 48 40 35 33 39 42 44 38 32 30 31 38 48 55 52 56 57 59 54
55 47 44 40 39 43 51 41 35 36 34 38 47 46 38 34 38 41 48 48 45 38 33 35 35 49 54 60 59 57 62 61 56
50 46 45 44 44 44 48 42 40 38 35 37 36 35 35 38 47 52 55 50 45 40 36 40 46 58 63 65 67 58 67 63 59
46 44 47 49 47 47 43 41 43 41 39 40 36 34 37 44 52 56 55 50 44 44 39 47 62 68 67 70 74 68 73 64 60
44 44 45 48 51 47 43 43 45 45 43 42 40 36 40 46 44 50 54 51 46 42 46 52 62 70 72 79 75 80 71 64 60
37 41 43 46 49 51 48 47 46 45 42 43 44 45 47 46 46 58 60 52 45 44 50 61 73 75 84 84 82 85 65 63 57
39 46 54 58 62 60 57 58 57 55 52 47 46 47 49 47 56 67 63 48 47 49 59 71 81 89 90 88 95 76 62 61 58
46 49 56 61 60 55 56 56 55 50 46 45 52 53 51 62 73 69 56 56 52 61 72 80 87 95 98 99 87 70 62 61 63
51 52 53 54 54 55 59 60 56 52 50 53 61 67 68 77 73 59 54 57 60 73 80 90 92 98 100 94 75 64 66 64 67
51 51 52 56 58 61 59 58 57 58 63 72 86 78 79 73 74 58 62 59 66 76 88 98 97 100 98 79 70 65 66 67 68
56 55 57 62 63 60 64 67 68 66 78 87 85 83 78 77 74 70 68 69 82 91 93 100 100 100 86 67 64 68 67 68 60
65 61 59 65 69 76 79 82 80 82 89 90 86 85 80 79 81 81 84 92 97 100 98 100 100 92 70 71 71 68 66 62 50
84 81 82 83 85 89 88 91 89 96 94 88 87 88 92 90 93 95 92 96 100 98 100 95 90 77 72 72 70 70 62 53 37
90 91 90 92 91 91 95 95 100 94 90 90 93 91 88 92 88 94 100 100 100 99 91 86 79 72 70 72 67 64 53 45 28
100 98 93 97 100 98 100 100 96 99 97 100 98 98 93 88 92 100 100 98 100 89 86 79 74 71 72 71 66 55 41 28 31
99 94 92 97 96 94 99 100 100 100 99 94 99 100 100 100 100 100 100 94 94 95 87 83 73 73 73 71 59 41 27 24 36
100 100 100 100 100 100 100 100 100 100 100 98 100 100 100 100 100 100 100 100 97 96 89 80 79 77 70 62 47 26 26 28 26
100 100 100 100 100 100 100 100 100 100 100 100 100 100 100 100 100 100 100 100 100 97 89 80 81 74 63 50 29 24 25 28 28
100 100 100 100 100 100 100 100 100 100 100 100 100 100 100 100 100 100 100 100 100 94 85 84 75 65 51 32 23 27 34 26 30

GFSFLT1_250_rhum_063.txt.gz
RH
69 65 73 76 73 59 48 41 38 41 43 39 32 27 28 32 46 39 31 32 35 40 46 43 41 39 35 35 36 42 48 54 61
69 75 81 86 67 53 45 40 37 41 46 38 31 28 29 38 34 32 31 34 38 39 38 41 43 39 35 36 41 47 56 59 64
70 81 86 84 58 49 44 39 38 40 46 38 34 31 30 34 35 33 34 34 40 39 39 41 44 38 38 39 45 50 59 60 72
72 72 65 64 54 46 45 42 42 43 44 40 38 39 35 35 37 35 37 40 37 39 41 51 44 38 42 48 54 58 58 67 87
65 61 57 57 52 46 43 43 48 48 45 42 45 41 40 40 40 40 38 39 38 41 54 53 41 44 49 50 55 57 66 86 93
57 50 54 55 48 44 43 46 51 51 49 50 46 44 44 43 39 34 39 37 35 55 53 43 47 45 49 52 57 66 76 90 93
41 46 53 52 41 39 42 48 48 47 49 50 49 48 46 44 43 41 37 40 40 47 47 46 50 47 51 55 64 74 87 91 88
42 46 50 45 38 39 45 52 54 55 58 57 57 55 50 48 44 48 50 49 53 46 44 48 51 53 55 65 73 88 92 99 75
41 41 43 48 49 55 58 62 64 60 58 53 53 48 47 50 54 65 53 54 56 51 51 56 59 58 69 77 82 92 100 89 64
50 50 48 48 52 57 59 56 56 54 55 54 53 56 60 66 70 66 57 57 58 60 63 68 65 77 93 89 96 98 93 68 61
48 52 55 55 55 56 55 54 55 56 56 62 65 80 79 74 74 61 60 60 64 67 74 76 81 91 96 100 100 99 67 60 57
67 65 58 59 58 57 58 59 60 62 63 75 90 84 80 81 75 72 72 71 70 72 74 76 94 93 94 96 98 82 65 70 61
67 67 71 74 76 77 76 76 72 80 85 82 88 87 85 86 85 82 76 79 75 74 74 90 96 95 100 100 90 72 74 64 64
73 76 68 66 70 75 79 84 87 89 89 84 88 88 93 99 94 82 88 82 78 84 92 97 100 100 100 85 82 78 73 67 61
80 78 81 83 84 84 82 79 82 89 85 95 90 97 100 97 89 93 89 92 100 99 99 100 100 99 90 87 73 72 63 64 61
74 84 86 89 100 100 94 96 100 100 98 97 100 100 98 95 99 98 100 100 100 100 100 100 98 89 85 72 71 68 64 62 52
80 88 98 100 100 100 100 100 100 100 100 100 99 100 100 100 100 100 100 100 99 100 99 93 86 80 72 64 65 67 62 51 39
96 100 98 100 100 100 100 100 100 100 100 100 100 100 100 100 100 100 100 99 98 95 87 77 76 75 70 66 64 54 50 39 30
96 100 100 100 100 100 100 100 100 100 100 100 100 100 100 100 100 100 100 100 98 89 84 83 74 70 66 59 53 48 38 31 29
79 95 100 100 100 100 100 100 100 100 100 100 100 100 100 100 100 100 100 100 99 88 84 73 69 61 55 49 40 36 30 28 26

GFSFLT1_250_rhum_066.txt.gz
RH
26 30 46 68 68 71 76 78 68 55 48 43 37 38 43 36 32 29 28 29 31 28 30 30 31 28 34 39 33 34 35 34 34
28 30 51 68 70 77 87 82 65 53 47 39 37 40 43 39 32 30 28 27 31 32 32 33 30 32 36 38 38 39 35 36 38
31 32 54 67 85 92 92 86 61 51 45 38 39 39 39 37 33 33 31 30 31 32 32 34 31 35 39 37 42 43 39 37 44
27 28 49 68 82 80 73 71 56 50 43 41 41 41 41 40 38 35 35 36 36 35 32 32 36 38 39 40 45 42 38 41 47
25 26 44 61 69 69 61 60 55 48 42 40 46 46 46 42 42 42 41 41 39 37 39 35 34 38 39 46 43 42 42 46 54
26 29 44 53 59 58 54 57 52 44 42 45 51 48 48 47 48 45 45 39 38 49 41 36 41 40 48 45 42 42 46 60 74
29 27 36 42 45 45 50 55 54 43 43 47 47 50 54 51 49 47 44 40 46 45 40 42 43 47 52 49 45 48 59 74 81
41 29 31 36 38 42 47 52 45 38 44 52 57 60 61 56 53 47 44 47 51 47 45 47 50 50 54 54 50 59 70 72 86
56 41 33 36 39 42 42 40 44 48 58 60 58 56 52 51 48 47 51 58 55 54 52 54 55 59 56 51 58 73 75 81 88
65 62 48 39 41 48 52 53 52 54 54 55 55 52 49 49 50 54 60 61 66 71 64 62 61 60 56 59 72 84 88 89 95
78 74 61 59 48 40 40 43 48 51 50 51 52 53 55 60 68 64 66 67 71 72 70 62 67 57 61 72 77 85 91 98 83
92 87 74 71 64 58 52 50 50 52 54 57 60 66 67 72 70 73 75 83 85 81 72 71 63 70 84 88 90 91 90 81 63
80 86 85 75 66 63 63 58 57 61 67 66 70 74 74 77 80 83 93 96 94 86 77 74 79 87 92 94 98 98 83 68 56
100 95 94 88 77 71 69 71 72 75 74 78 84 86 96 97 100 100 100 96 89 85 86 87 90 95 100 96 98 91 76 60 55
96 88 86 85 85 89 88 94 91 88 94 95 100 100 100 100 100 100 97 94 90 92 92 99 98 99 99 98 92 75 66 59 53
76 73 84 90 89 85 85 82 97 100 100 100 100 100 100 100 100 100 96 89 98 99 90 99 100 100 99 92 79 73 62 58 52
100 100 96 94 79 77 75 82 94 99 100 100 100 100 100 100 100 100 100 100 100 100 100 100 100 100 96 92 76 72 66 59 50
91 95 92 96 85 94 84 83 93 100 100 100 100 100 100 99 100 100 100 100 100 100 100 100 100 94 91 82 77 73 63 56 48
100 96 93 84 83 77 83 87 100 100 100 100 100 95 93 98 100 100 100 100 100 100 100 100 94 90 85 80 79 69 61 48 42
100 100 100 99 100 99 80 67 92 94 100 100 100 100 100 100 100 100 100 100 100 100 100 99 96 94 82 81 70 66 58 43 36

GFSFLT1_250_rhum_069.txt.gz
RH
46 42 34 28 34 48 71 80 79 88 81 78 66 57 49 37 36 35 36 37 32 32 28 27 28 29 26 26 28 29 34 38 34
54 48 36 30 30 41 65 77 85 95 91 84 68 54 48 39 38 36 37 38 36 32 31 29 30 30 28 30 33 29 37 39 36
56 51 38 30 30 36 62 77 87 95 86 78 62 53 46 41 34 37 40 39 36 37 33 33 33 33 33 34 34 33 39 39 36
52 54 40 30 27 31 55 72 77 74 68 63 60 53 45 36 38 41 39 39 43 42 40 39 37 40 35 38 33 35 43 39 35
52 54 48 31 26 30 50 62 66 65 58 59 57 48 40 38 42 41 43 51 52 44 42 38 39 38 34 34 34 40 45 41 39
54 51 52 38 27 31 46 51 54 54 51 55 54 48 40 39 44 49 51 51 49 46 42 38 40 36 38 38 38 45 44 41 44
60 52 48 47 34 28 32 39 42 44 46 50 53 49 40 45 49 53 52 50 46 40 38 42 42 39 45 44 47 47 43 42 54
60 64 58 50 46 37 29 31 34 38 42 44 40 40 39 46 52 55 52 48 46 45 48 49 51 52 56 57 53 46 45 49 60
67 73 64 59 49 46 41 34 33 35 37 37 37 40 47 50 48 45 46 50 55 59 59 66 66 65 62 63 53 50 54 62 71
74 74 69 64 61 54 53 48 43 40 37 36 38 39 40 42 43 46 51 60 66 73 78 84 75 67 67 62 56 62 69 78 85
85 86 78 70 73 67 60 57 52 51 50 50 51 52 58 61 64 68 71 78 87 92 96 97 80 80 76 66 61 62 75 85 91
93 100 99 87 80 82 73 68 64 60 62 67 70 70 72 75 80 86 95 96 100 100 82 81 84 89 81 72 79 82 86 89 96
100 100 100 100 97 93 84 84 86 84 81 82 84 77 90 92 93 100 100 100 100 84 90 84 78 70 82 88 93 96 95 100 78
100 100 100 100 100 100 93 87 94 100 100 100 100 100 94 100 100 100 100 90 89 95 98 90 76 97 100 100 100 100 98 83 73
100 100 100 100 91 87 91 89 82 89 100 100 78 78 96 100 96 96 99 87 89 95 100 85 99 100 100 100 100 100 90 84 76
100 100 100 100 100 100 100 100 100 100 100 100 100 99 90 97 100 100 100 94 96 89 90 96 100 100 100 100 98 100 95 91 79
100 100 100 100 100 100 100 100 100 100 99 100 92 99 92 93 100 99 100 100 96 91 93 95 99 100 100 100 100 100 95 88 84
100 100 100 100 100 100 97 96 84 76 86 90 68 87 100 99 100 100 100 100 85 83 87 100 100 100 100 99 100 93 85 84 82
100 100 100 100 97 100 100 100 92 87 71 89 95 95 100 98 100 100 100 100 100 100 100 100 100 100 100 100 99 96 93 87 72
100 100 100 100 100 100 92 90 91 88 93 100 99 96 100 99 91 100 100 97 100 100 100 95 100 100 100 100 100 93 92 74 65

GFSFLT1_250_rhum_075.txt.gz
RH
36 38 39 46 46 39 45 48 38 34 31 31 48 70 75 92 78 69 61 58 53 46 41 37 30 28 30 32 35 38 44 48 48
40 39 44 50 48 39 40 46 44 34 28 27 38 56 69 73 69 62 58 54 50 45 37 32 30 32 36 41 48 58 60 58 48
44 42 50 52 44 42 42 41 45 39 30 26 31 44 54 57 56 50 48 44 43 41 36 32 36 42 48 58 66 64 63 60 55
54 51 57 49 44 44 44 42 47 42 32 27 29 37 42 44 42 41 35 35 37 36 36 42 46 52 62 73 75 70 67 71 63
59 55 61 47 46 48 45 39 42 44 39 31 29 30 30 32 32 30 30 34 38 42 45 48 54 67 65 72 74 57 69 66 58
62 59 55 49 49 48 47 46 41 41 40 37 36 33 30 30 30 33 40 46 48 50 55 57 64 72 83 83 72 82 75 73 63
69 66 61 56 56 52 50 48 47 46 46 46 46 46 43 42 42 42 45 50 56 60 67 71 78 86 90 87 77 78 76 72 66
81 74 67 61 64 56 53 58 59 61 63 61 62 58 52 51 51 54 59 68 68 72 68 75 94 79 98 74 80 78 57 63 61
100 84 85 76 70 75 78 70 74 74 76 76 72 68 71 67 69 69 74 82 83 91 80 92 100 100 100 80 79 53 51 66 72
88 95 100 81 78 90 88 76 67 68 75 86 98 98 95 86 87 86 95 88 94 93 95 100 100 100 89 78 64 58 63 61 77
93 96 98 98 100 95 80 78 86 90 100 100 100 100 100 100 100 95 88 99 100 100 100 95 96 82 81 74 66 64 72 92 90
100 100 95 100 92 99 99 100 100 100 100 100 100 100 100 100 100 100 100 100 100 100 87 95 91 90 75 70 67 70 70 89 88
100 100 100 100 99 93 96 100 100 100 100 100 100 100 100 100 100 100 100 93 96 94 88 94 75 83 61 67 61 75 93 88 82
100 100 100 100 100 100 100 100 100 100 100 100 100 100 100 98 96 95 93 91 93 86 76 79 86 74 72 68 81 92 87 86 83
100 100 100 100 100 100 100 100 100 100 100 100 100 100 100 94 87 100 99 95 93 86 96 96 93 92 86 94 100 100 98 84 100
100 100 100 100 100 100 100 100 100 100 100 100 100 100 97 94 89 92 90 93 87 100 79 98 100 96 100 100 100 100 85 100 100
100 100 100 100 100 100 100 100 100 100 100 100 100 92 71 76 79 78 81 88 100 99 100 94 89 99 98 95 98 100 100 100 100
100 100 100 100 100 99 100 98 93 100 98 74 76 76 73 74 82 87 99 99 94 99 92 100 100 97 100 100 100 100 100 100 100
100 100 99 98 93 96 87 76 64 67 69 65 59 54 59 100 100 100 100 100 100 100 100 100 100 100 100 100 100 100 100 100 100
100 93 91 78 72 74 69 61 58 51 57 64 65 90 96 96 100 100 100 100 100 100 100 100 100 100 100 100 100 100 100 100 100

GFSFLT1_250_rhum_078.txt.gz
RH
50 47 43 37 32 34 39 35 33 36 44 40 33 28 27 35 47 52 49 46 44 40 32 32 35 41 43 46 51 44 43 40 46
57 57 49 46 36 40 43 35 36 37 37 42 38 28 27 31 36 39 42 38 34 31 33 37 44 46 49 44 48 49 58 40 49
65 60 55 50 46 48 45 37 39 40 31 36 38 31 28 28 30 32 33 32 32 40 44 43 41 50 46 48 66 58 62 57 64
64 63 62 58 50 51 49 42 42 40 36 34 30 31 30 31 30 30 29 32 36 42 47 53 54 51 52 61 79 58 75 81 62
74 68 70 63 61 52 50 46 45 42 38 38 41 39 40 42 44 41 40 42 44 45 53 58 61 68 60 76 77 73 87 88 68
70 74 75 68 67 57 52 55 52 51 44 42 46 53 58 59 56 51 49 50 53 57 63 68 75 76 61 93 99 72 84 87 69
80 85 81 80 70 70 65 58 58 58 58 64 67 71 73 73 71 69 70 67 68 70 72 73 94 99 100 87 77 72 73 72 68
83 82 88 82 78 70 68 70 64 68 66 64 60 63 67 81 92 92 95 88 80 76 78 92 100 100 100 97 77 86 80 59 54
92 80 74 73 70 71 75 72 61 70 81 75 70 66 87 95 99 100 100 100 98 90 98 100 100 99 89 73 94 75 74 65 74
100 100 88 83 82 80 100 100 98 99 92 78 79 83 100 100 100 100 100 100 100 100 100 100 96 89 98 89 86 77 68 100 68
100 100 100 100 94 90 82 79 90 99 100 100 100 100 100 100 100 100 100 84 78 100 100 100 94 95 80 85 80 72 100 77 83
100 100 97 93 95 100 100 100 100 100 99 90 100 100 100 100 100 100 92 86 90 97 100 100 76 67 77 90 71 97 90 81 74
100 100 100 100 100 100 100 100 100 100 100 100 100 100 100 100 100 100 100 100 91 86 70 80 77 79 88 78 99 89 81 72 76
100 100 100 96 100 99 100 100 100 100 100 100 100 100 100 100 97 100 100 87 88 82 75 75 76 82 76 82 92 82 75 86 93
99 99 97 100 100 100 100 100 100 100 100 100 100 100 100 100 100 95 95 77 68 67 60 67 82 87 94 97 90 86 94 100 100
93 96 83 100 100 100 100 100 97 100 100 100 100 98 84 73 83 60 55 68 69 62 66 70 75 93 77 74 95 100 100 100 99
76 90 100 100 100 100 100 100 100 99 97 96 85 82 61 66 64 65 59 63 63 56 58 79 89 97 98 98 97 100 100 100 96
81 93 100 100 100 100 100 100 100 100 92 75 78 77 68 64 62 61 54 59 78 82 92 97 97 93 98 100 100 100 100 100 100
85 91 88 88 85 97 98 89 90 99 92 78 67 61 52 40 38 42 47 68 92 88 97 100 92 96 100 100 100 100 100 100 100
100 100 100 100 90 87 77 62 59 54 59 54 54 47 40 40 57 81 96 95 100 100 100 100 100 100 98 100 100 100 100 68 55

GFSFLT1_250_rhum_081.txt.gz
RH
70 64 49 52 51 46 41 37 42 38 35 36 32 35 36 29 26 26 27 30 33 35 38 42 44 47 46 47 45 51 46 50 59
62 59 57 57 56 51 49 45 48 40 39 38 35 33 36 31 28 28 29 29 30 31 35 37 45 51 49 55 62 54 61 46 50
69 63 59 66 58 54 60 53 47 44 43 41 36 35 32 32 32 35 38 36 35 39 41 46 46 53 54 62 65 58 68 52 72
74 66 59 65 69 63 65 58 59 47 44 44 42 39 42 49 52 53 54 50 48 48 49 51 52 52 57 69 84 87 83 61 73
85 74 68 58 65 65 70 65 61 54 50 45 47 44 46 51 55 61 64 64 61 60 63 61 63 66 78 98 100 98 68 74 87
86 92 81 76 66 65 75 74 63 58 56 51 52 56 60 60 57 52 76 86 90 98 96 98 87 74 100 97 95 80 69 77 72
94 95 92 85 73 80 82 84 68 62 60 57 52 56 56 53 59 68 89 88 86 90 100 100 91 74 99 90 75 76 64 69 74
100 92 80 80 91 82 80 64 68 63 65 62 58 67 81 70 62 73 100 91 90 98 100 89 61 74 90 95 84 58 62 68 81
98 98 100 100 95 91 90 86 87 78 79 94 83 92 74 75 74 99 90 98 100 100 71 56 58 68 85 99 74 71 81 64 66
100 100 100 100 100 100 99 93 90 83 80 82 70 76 96 99 99 89 99 91 100 83 71 74 73 80 95 88 84 92 70 62 73
74 77 91 79 67 88 100 100 88 78 92 96 100 100 100 94 95 100 98 95 100 100 86 81 78 70 85 87 66 57 51 56 76
54 68 59 72 84 84 91 100 100 96 99 99 100 100 100 93 98 100 100 100 100 100 82 76 71 76 77 74 45 47 60 92 64
74 58 57 77 92 89 99 100 86 99 99 100 96 100 100 100 91 87 90 90 98 97 73 62 67 71 67 51 45 49 61 62 75
66 64 83 86 100 100 100 98 98 91 100 100 100 100 100 100 97 82 70 78 78 78 62 54 61 59 52 44 43 46 64 95 84
52 66 94 100 100 100 96 91 100 100 100 100 89 96 82 71 73 71 82 69 77 71 62 46 42 37 44 45 66 65 61 72 100
83 66 64 97 91 85 74 83 100 87 92 86 91 79 77 65 66 67 74 72 77 69 55 44 34 36 47 69 100 96 89 100 78
99 90 93 85 75 68 64 58 81 100 89 69 85 85 65 68 58 59 64 79 78 63 49 38 43 51 50 99 88 100 100 93 100
100 100 95 95 86 80 59 47 60 65 81 66 64 72 68 62 65 62 54 44 36 37 45 37 73 73 85 97 98 100 100 100 100
100 100 100 100 100 99 78 67 65 52 47 49 50 50 56 64 62 48 42 32 33 34 52 83 100 100 72 100 88 98 89 100 100
90 98 89 64 74 82 76 52 51 78 74 50 42 42 40 36 50 49 39 47 68 100 92 72 100 94 100 74 82 86 93 100 94

GFSFLT1_250_rhum_084.txt.gz
RH
100 80 72 56 52 55 52 50 53 49 44 42 40 39 35 31 32 33 28 27 28 31 32 35 40 44 42 48 53 56 67 79 76
94 86 75 63 58 54 58 52 51 55 51 45 42 40 40 36 33 32 35 41 41 38 38 42 46 49 52 53 59 73 96 95 63
99 86 89 71 65 60 58 65 60 54 53 53 46 44 42 38 42 46 49 53 51 47 47 50 56 61 72 75 55 98 80 68 66
83 100 97 78 65 62 68 70 69 59 63 52 53 47 42 40 42 48 51 52 59 90 93 100 100 100 100 74 58 81 68 66 68
84 85 78 76 74 74 73 70 67 64 71 65 57 53 48 50 53 57 58 59 67 87 71 57 69 100 84 56 54 62 64 77 81
90 74 80 81 78 88 86 80 75 75 82 77 63 58 56 54 53 57 54 53 56 99 76 71 88 84 56 50 54 55 68 83 73
86 87 98 94 99 92 72 73 88 78 74 77 70 64 64 60 61 75 63 53 71 77 75 100 71 61 58 51 52 58 81 97 79
93 100 100 100 100 94 68 70 78 88 70 66 82 73 69 77 73 81 76 71 81 67 94 98 84 82 68 61 65 70 76 79 59
88 72 64 81 84 86 81 85 80 84 90 75 84 76 87 97 77 58 78 97 77 97 94 100 100 92 80 77 68 75 60 62 53
90 79 91 94 76 87 95 100 99 88 80 94 87 63 66 71 95 100 100 100 88 88 96 97 100 90 94 68 64 51 56 42 37
75 90 100 88 95 100 91 91 76 79 79 81 79 85 86 72 86 100 77 63 75 93 76 84 93 88 71 69 51 43 36 35 34
100 97 80 74 66 57 48 61 91 77 72 87 83 75 81 89 91 78 79 86 81 90 92 91 86 82 72 66 57 45 41 34 35
100 100 82 61 46 53 71 95 100 100 91 100 95 91 82 73 98 76 66 65 75 92 90 85 82 80 71 68 62 48 42 30 40
89 100 73 64 76 81 84 95 100 100 94 100 100 97 93 88 80 77 65 61 60 68 70 76 78 81 65 39 31 31 39 32 53
86 94 100 85 84 88 95 100 100 100 97 100 97 92 83 67 63 74 83 77 79 81 76 75 72 62 45 36 35 38 45 48 61
77 54 96 83 85 96 85 100 99 87 60 79 72 63 64 49 52 63 62 74 61 53 69 76 68 59 47 37 35 48 66 80 82
100 99 99 100 90 100 100 100 99 86 62 42 43 39 32 39 40 44 54 72 48 42 44 52 35 34 36 32 54 86 92 96 78
100 100 100 100 100 100 86 86 82 59 42 33 30 30 40 42 48 47 38 40 34 34 44 39 36 38 31 38 55 79 71 70 69
100 100 100 100 100 86 77 69 71 60 53 42 43 38 34 32 30 32 30 37 33 34 49 60 46 54 38 39 52 67 96 72 87
100 100 93 95 100 100 100 100 100 100 96 78 44 36 31 29 27 28 33 40 53 58 59 42 61 67 75 57 72 72 79 92 100

GFSFLT1_250_rhum_087.txt.gz
RH
52 73 100 99 73 59 54 52 47 52 53 51 49 49 44 42 42 38 37 32 37 44 40 38 41 47 53 68 75 79 62 48 45
50 58 74 91 78 72 63 59 56 55 59 62 55 52 50 44 42 38 40 46 47 51 53 70 80 79 91 100 99 67 51 40 43
54 55 62 97 90 81 75 63 61 62 61 62 62 60 55 51 45 42 39 47 49 53 59 83 78 57 46 92 68 56 44 49 62
77 61 65 85 100 99 87 67 66 68 67 63 58 64 61 56 53 49 45 48 52 56 51 65 83 62 60 57 55 59 51 62 64
81 82 72 80 79 79 72 63 65 72 70 70 64 61 70 62 58 56 53 53 60 56 52 61 62 64 63 73 72 79 72 59 50
83 93 93 80 89 82 67 71 74 70 63 74 73 59 61 68 66 63 63 60 58 66 62 59 66 69 91 74 85 86 71 65 54
86 84 74 82 77 92 90 100 100 74 65 60 70 72 56 65 70 69 73 67 61 66 57 74 71 83 79 98 95 96 78 67 59
88 87 77 95 100 90 100 100 91 74 63 66 82 79 72 63 69 72 93 100 76 56 100 100 80 76 100 86 93 82 73 68 69
100 94 99 100 99 95 73 73 64 59 70 79 99 100 88 69 75 66 61 63 60 94 100 80 66 76 86 97 87 81 79 81 55
100 100 100 100 100 91 88 76 66 63 69 100 100 89 99 100 86 64 66 50 62 68 68 52 56 72 97 88 71 69 65 62 43
100 100 97 100 100 98 95 65 62 86 98 94 97 77 69 59 74 76 67 70 71 68 67 75 73 74 71 70 64 66 60 58 48
99 100 100 100 100 97 75 65 72 90 86 53 60 74 73 82 76 100 95 86 86 82 69 76 63 82 71 69 73 62 65 50 47
98 98 100 100 100 100 89 60 68 68 54 58 74 84 85 96 99 100 99 85 81 70 54 51 62 65 75 69 55 47 47 33 33
99 100 100 100 100 100 76 39 47 56 62 73 93 89 87 100 100 100 95 87 72 57 39 27 31 62 68 55 40 40 37 34 27
100 100 100 100 100 100 85 46 43 81 90 87 98 100 100 100 100 96 72 44 30 24 24 27 48 55 48 34 32 38 30 32 38
100 100 100 100 100 100 99 72 52 63 100 100 90 78 83 84 68 56 53 38 33 30 24 27 40 37 30 29 31 29 28 40 56
100 100 100 100 99 96 82 75 89 100 100 91 96 95 80 73 57 45 49 42 40 34 25 28 27 28 27 29 34 46 58 54 73
100 100 100 100 100 100 100 100 100 100 98 76 60 56 44 63 49 63 47 32 37 35 38 29 29 28 27 34 46 68 86 86 89
100 100 95 100 100 100 100 100 100 100 100 75 52 65 63 45 30 28 33 35 46 43 34 32 32 28 42 66 67 81 89 57 53
100 100 100 100 100 100 100 100 100 100 100 100 73 91 60 68 75 84 70 52 48 30 30 33 64 44 69 91 75 100 76 78 70

GFSFLT1_250_rhum_090.txt.gz
RH
48 50 48 55 91 100 87 69 60 55 51 51 52 53 52 48 51 49 43 41 39 46 48 48 59 83 71 69 55 58 55 69 71
65 56 53 52 62 77 82 77 70 67 61 55 57 57 56 53 52 51 46 46 42 48 52 52 51 53 80 62 48 54 64 76 75
81 58 60 56 55 62 90 88 80 74 65 64 65 63 63 59 53 54 53 51 50 46 48 49 49 54 54 47 56 72 65 80 80
85 68 63 68 69 64 74 100 100 98 64 64 69 64 66 63 65 59 59 59 56 55 56 58 53 48 50 53 60 79 90 78 83
74 67 69 71 70 74 69 66 73 72 60 61 69 69 65 71 68 60 66 64 62 62 54 49 56 54 53 83 74 78 92 76 84
62 70 67 62 66 77 82 79 84 78 76 86 97 72 58 65 71 65 54 63 62 62 61 61 58 94 100 91 72 53 63 86 67
70 67 61 63 62 66 69 68 92 100 100 100 100 78 52 55 73 77 55 56 58 73 85 85 92 100 100 69 51 69 67 72 55
87 72 68 65 61 71 68 70 100 89 85 89 85 67 55 56 84 77 69 61 60 58 57 54 61 89 70 62 59 53 73 63 69
100 83 97 90 89 100 98 96 100 80 88 90 64 56 57 64 100 100 82 85 73 52 51 56 65 74 65 56 52 48 40 70 68
100 100 100 100 99 100 100 100 100 100 98 75 66 58 58 88 100 97 61 64 61 58 82 88 78 73 64 50 30 36 52 59 66
100 100 100 100 100 100 100 92 94 86 96 96 74 48 95 100 86 77 79 75 69 96 100 88 85 77 64 29 24 25 36 48 34
100 100 100 100 100 100 87 98 100 100 100 98 71 58 81 99 71 56 84 95 96 100 99 95 91 68 32 32 31 24 29 48 29
100 100 99 100 100 81 73 88 100 100 100 91 62 60 76 73 60 57 85 95 100 100 100 100 83 45 44 41 32 28 26 29 26
94 100 100 100 98 96 100 100 100 100 94 90 64 42 39 56 63 72 97 100 100 100 100 98 70 50 51 45 38 31 24 26 27
100 100 100 100 100 100 100 98 100 100 95 85 77 67 57 53 66 85 83 74 81 100 100 79 60 62 61 42 40 32 27 23 27
100 100 100 100 98 100 100 100 100 100 100 81 82 73 72 46 81 86 90 100 100 98 83 56 43 49 40 30 28 34 28 22 27
100 100 100 100 100 98 99 94 100 100 100 98 80 96 77 85 100 100 100 99 80 78 64 45 29 27 29 27 30 27 26 24 49
100 100 100 100 100 100 90 90 100 100 99 100 100 100 100 100 100 100 91 65 45 38 33 30 27 30 35 34 31 25 24 42 58
100 100 100 100 100 99 99 100 100 100 100 96 100 100 100 100 100 97 90 64 77 65 44 29 40 38 33 29 26 27 32 53 84
100 100 100 100 100 100 100 100 100 100 100 100 100 100 96 87 100 71 80 54 63 80 62 73 50 40 34 39 40 43 36 67 87

GFSFLT1_250_rhum_093.txt.gz
RH
67 56 46 48 49 49 55 92 89 79 63 60 58 53 54 54 58 54 52 48 44 44 41 49 51 49 50 49 51 60 56 48 55
78 69 71 55 52 53 52 61 71 82 79 68 67 59 60 60 62 64 56 51 51 49 49 48 46 49 55 51 54 54 49 64 57
84 74 83 78 59 56 54 55 65 91 97 86 89 62 54 62 57 58 64 66 57 57 58 52 52 48 49 53 58 61 83 61 57
68 75 78 78 77 62 62 61 59 63 85 98 81 67 62 70 68 57 52 61 64 64 64 56 55 53 52 64 100 100 73 53 45
100 100 90 74 80 73 71 70 64 61 61 68 70 69 73 80 82 62 51 54 65 56 54 64 64 66 77 100 99 86 60 39 25
100 100 75 71 68 69 70 69 68 69 63 74 94 100 100 100 90 74 50 48 71 61 51 53 64 71 78 88 83 71 50 26 31
100 100 100 73 67 60 67 64 69 69 71 70 100 85 73 78 87 71 54 50 72 80 63 53 58 58 62 61 49 57 48 26 27
100 100 100 100 87 73 73 70 74 80 93 85 100 78 66 81 70 66 66 60 92 100 75 63 64 64 76 78 68 69 36 34 36
100 100 100 100 100 95 86 87 87 96 100 100 100 100 100 93 74 73 63 53 85 99 86 76 68 74 89 72 80 76 40 43 45
96 100 100 100 100 100 100 97 100 100 100 100 98 100 84 59 74 82 57 74 100 97 91 84 88 83 87 94 91 65 44 57 53
92 100 99 100 100 100 100 100 100 100 100 100 100 91 80 70 88 74 76 80 99 75 56 62 97 97 100 100 93 83 68 55 49
85 96 100 100 100 100 100 100 100 100 94 100 100 100 100 84 99 78 62 69 84 81 62 58 77 99 100 100 100 91 73 49 36
94 89 93 100 100 100 100 100 91 100 100 93 84 100 99 100 98 75 51 51 50 60 58 63 84 100 100 100 100 90 59 40 30
96 100 100 85 100 100 100 100 100 95 86 100 99 100 100 99 92 87 73 66 50 41 57 62 82 100 100 100 97 86 56 38 28
100 100 100 100 100 100 100 97 88 91 100 100 100 100 100 94 91 81 88 84 76 66 78 94 88 100 100 100 92 78 49 32 24
92 100 100 100 100 100 97 94 99 100 100 100 100 100 100 83 82 78 72 79 71 89 100 96 92 96 100 84 50 38 36 30 26
100 100 100 100 100 98 100 100 100 100 100 100 97 95 100 100 83 81 85 80 95 97 100 100 94 87 54 32 40 35 30 25 28
100 100 100 100 92 100 100 100 100 100 100 100 95 100 100 100 100 100 100 81 76 88 82 72 59 60 46 42 43 36 30 29 31
100 100 100 100 100 99 100 100 99 100 100 100 100 100 100 100 100 100 100 82 89 91 96 88 73 51 58 56 57 55 37 32 39
100 100 99 100 100 100 100 100 88 100 100 100 100 100 100 93 100 100 84 82 86 100 96 62 80 61 66 72 58 49 38 36 46

GFSFLT1_250_rhum_096.txt.gz
RH
74 69 65 58 45 47 50 51 52 65 79 72 68 68 64 60 58 57 57 50 50 51 53 52 51 51 47 51 59 59 65 78 75
73 79 69 73 70 50 54 56 57 56 58 62 58 72 70 74 56 54 54 51 47 47 50 49 55 55 54 55 56 57 90 86 65
89 75 79 88 84 82 64 66 65 58 58 62 92 97 89 90 59 59 65 69 55 45 42 51 53 56 56 60 70 80 98 78 60
100 96 87 78 86 88 78 77 67 64 67 68 62 64 64 55 57 62 74 83 67 52 44 51 56 56 58 68 99 100 84 66 59
98 95 99 98 83 80 91 76 79 76 76 78 78 71 66 66 100 99 84 87 71 58 52 51 64 57 60 65 62 82 70 59 54
71 83 94 100 100 100 100 81 74 70 81 83 76 74 69 88 100 98 72 57 70 66 68 57 100 73 59 68 75 77 72 69 64
63 68 86 97 100 100 100 88 73 72 74 84 79 78 75 83 100 100 79 67 67 74 69 52 64 98 72 79 92 73 76 75 78
66 68 80 86 84 99 100 100 88 73 70 75 93 95 86 98 100 100 98 82 76 81 80 44 57 99 84 78 71 76 94 82 87
69 72 86 86 87 85 96 96 100 96 85 87 90 96 100 97 100 100 63 53 49 84 78 55 74 99 92 85 94 93 87 93 100
68 76 84 89 88 84 94 98 93 97 96 100 98 100 100 100 100 100 76 74 84 76 80 53 94 97 74 63 84 100 100 100 100
51 99 100 88 95 90 93 100 99 92 100 100 100 100 100 100 100 100 100 88 73 88 90 84 76 94 69 66 62 100 100 100 99
55 87 98 96 98 95 100 100 100 100 100 100 100 100 100 83 71 72 93 92 70 100 84 74 73 66 62 56 93 100 100 100 100
70 87 98 100 100 100 100 100 100 100 100 100 100 100 100 92 79 100 100 76 58 100 87 65 67 58 66 72 66 96 100 100 100
56 65 94 100 100 100 100 100 100 100 100 100 100 100 100 100 100 100 98 81 71 93 100 92 80 70 81 72 70 87 100 100 100
60 75 81 92 100 100 100 100 100 100 100 100 100 100 100 97 98 100 100 97 88 100 98 85 72 63 55 62 75 80 99 95 86
83 93 95 68 89 100 100 100 100 100 100 100 100 100 100 100 100 100 100 100 100 70 92 91 75 68 71 61 67 94 56 53 43
100 100 100 100 100 87 96 100 100 100 100 100 100 100 99 100 100 100 100 100 88 71 60 93 100 82 64 50 36 69 43 43 64
100 100 100 100 100 100 100 100 100 100 100 100 100 93 88 100 96 98 98 100 100 100 98 100 100 100 89 70 65 94 89 95 68
85 100 100 100 100 100 100 100 100 100 100 100 100 100 100 100 100 100 100 100 100 100 100 100 100 100 95 59 81 100 74 90 66
100 100 100 100 100 100 100 100 100 92 93 100 100 93 100 100 100 100 99 100 100 99 90 84 95 95 85 95 77 96 84 75 64

GFSFLT1_250_rhum_099.txt.gz
RH
51 54 58 67 59 55 49 47 49 49 46 48 56 62 59 53 53 59 58 44 49 57 54 45 43 56 59 66 65 63 66 75 92
62 51 56 65 70 70 69 50 51 53 50 48 56 54 60 84 83 77 71 52 54 68 73 61 49 50 62 62 66 70 97 100 97
99 70 58 63 71 74 82 86 62 65 61 54 52 54 59 61 75 64 56 71 69 77 81 70 56 51 62 70 64 66 87 96 92
62 99 72 65 68 72 89 93 88 82 87 69 59 57 64 57 52 53 66 95 84 85 54 64 64 56 53 88 73 67 82 77 86
51 66 86 62 73 76 74 89 99 94 80 88 77 68 69 70 70 65 67 96 99 88 67 67 70 64 62 75 93 72 84 88 92
59 61 61 70 69 87 99 98 100 100 99 78 78 80 74 69 75 71 72 98 99 83 90 82 82 68 66 44 65 95 96 98 86
71 74 63 58 67 80 94 100 100 100 100 97 79 71 78 83 77 88 79 100 100 71 47 52 52 72 62 52 77 97 83 90 83
35 76 83 71 65 66 76 88 99 99 100 100 98 85 74 78 78 78 99 100 100 100 81 65 70 74 61 67 84 100 97 77 93
22 36 78 83 81 64 71 77 87 92 88 99 100 100 94 83 79 91 89 100 100 100 80 78 85 74 59 86 100 100 100 86 75
17 24 39 66 77 75 72 82 89 84 80 87 93 98 100 99 100 100 100 100 100 99 98 63 85 63 70 85 96 99 76 66 89
15 15 19 23 58 76 79 82 74 86 92 85 89 93 96 100 100 100 100 100 100 73 64 73 83 64 75 94 80 72 52 62 67
24 15 16 16 23 69 86 96 93 84 95 100 100 99 100 100 100 100 100 91 100 100 71 80 81 69 84 81 70 67 55 48 59
42 22 19 16 21 61 70 92 98 100 100 100 100 100 100 100 100 100 100 99 98 100 100 86 69 61 83 99 100 84 66 56 54
48 26 19 14 40 88 92 88 99 100 100 100 100 100 100 100 100 100 100 97 83 74 73 86 72 52 84 100 96 86 77 64 58
34 27 20 20 19 64 83 54 100 100 100 100 100 100 100 100 100 100 100 100 95 100 100 100 66 45 66 100 100 98 78 82 55
24 27 26 43 56 92 100 95 79 100 100 97 100 100 100 100 100 100 100 100 99 100 100 98 64 75 66 68 79 100 89 67 64
30 24 37 71 100 100 100 100 100 96 99 100 100 100 100 100 100 100 100 100 100 100 100 90 91 88 75 69 95 100 100 98 100
26 31 27 40 91 100 100 100 100 98 100 100 100 100 100 100 100 100 100 100 100 100 92 88 100 100 94 90 82 62 100 100 100
40 32 28 46 51 76 100 100 100 100 100 100 100 92 100 100 100 100 100 100 100 96 100 100 100 90 93 100 100 100 98 99 100
37 43 38 70 100 100 100 100 100 100 100 100 100 100 100 100 100 100 89 76 80 98 100 100 83 66 73 76 100 85 89 90 100

GFSFLT1_250_rhum_102.txt.gz
RH
66 57 48 52 61 67 62 52 51 48 48 47 45 44 45 44 48 57 69 58 59 50 50 68 65 63 58 50 59 61 64 69 90
100 83 56 52 58 65 71 74 73 64 50 50 48 49 48 45 45 59 58 52 52 70 78 83 80 63 64 59 60 80 78 76 91
78 98 75 66 58 58 72 77 78 82 83 61 56 58 55 53 49 52 53 54 53 72 86 80 69 73 70 67 69 84 99 84 86
72 85 100 99 95 73 57 69 80 83 94 97 94 82 74 62 57 56 58 59 60 64 99 71 69 81 79 73 59 67 59 89 95
40 72 86 100 99 96 86 68 66 78 91 100 100 95 93 89 73 70 68 65 63 70 98 74 61 64 61 52 52 60 62 94 100
34 44 65 69 75 66 82 85 71 66 79 94 100 100 95 88 79 71 67 72 71 82 87 100 99 97 78 66 66 62 52 80 100
22 34 48 60 68 64 61 66 83 76 72 97 100 100 100 100 81 80 76 77 75 77 100 100 90 91 66 68 80 68 46 99 100
16 20 37 56 67 58 59 64 66 74 82 74 96 100 100 100 100 97 91 79 76 74 93 100 100 98 50 63 88 65 50 97 100
19 16 18 29 44 61 60 66 64 66 66 78 78 91 99 100 100 100 100 98 97 100 97 100 100 100 84 54 68 68 53 87 100
42 34 32 26 26 34 44 54 62 73 76 73 77 89 85 80 93 96 100 100 100 100 100 91 100 99 91 62 60 67 57 68 69
70 55 49 39 33 36 32 36 50 69 84 77 72 73 93 94 88 94 92 100 100 100 100 100 100 100 87 70 85 63 59 76 68
84 86 75 55 48 39 31 34 46 81 88 91 85 84 84 100 98 100 99 100 100 100 100 99 94 94 70 47 66 66 55 75 97
55 70 67 68 68 57 44 33 26 26 51 73 89 96 97 100 100 100 100 100 100 100 100 100 100 98 86 85 80 73 55 65 90
28 32 35 62 79 55 48 46 31 30 33 42 68 98 98 100 100 100 100 100 100 100 100 99 98 100 100 84 96 87 59 63 81
28 25 23 37 41 29 30 44 40 35 25 28 34 77 100 100 100 100 100 100 100 100 100 100 98 100 100 100 81 69 63 64 74
28 33 32 34 34 30 32 43 47 30 30 70 49 95 100 100 100 100 100 100 100 100 100 100 100 100 100 100 91 72 61 51 77
29 24 32 33 34 36 31 29 28 26 29 52 88 99 100 87 91 100 100 100 100 100 100 100 100 100 95 100 97 84 68 56 76
46 28 34 43 31 38 24 23 27 26 45 60 82 90 100 100 100 96 100 100 100 100 100 100 100 100 99 83 48 64 95 98 72
66 63 44 44 56 44 40 39 31 41 63 68 100 100 100 98 100 100 100 100 100 100 100 96 98 96 79 65 59 46 98 99 100
55 48 49 53 56 63 47 36 40 49 67 85 100 100 100 89 100 100 100 100 100 99 72 100 98 100 100 100 58 100 100 100 95

GFSFLT1_250_rhum_105.txt.gz
RH
57 52 55 53 52 47 50 57 59 58 52 51 50 47 44 45 46 46 42 50 46 47 51 73 78 72 64 60 67 78 76 98 95
68 66 69 91 60 61 55 58 59 61 67 71 70 50 50 49 50 52 52 49 53 54 48 56 71 71 66 72 73 69 60 63 88
53 58 60 85 100 95 71 60 62 60 62 64 79 87 64 56 59 61 60 56 56 59 58 58 69 69 61 61 66 57 48 50 62
50 53 52 62 81 95 96 73 68 66 65 63 65 82 97 97 90 87 81 72 66 70 72 69 71 96 100 99 84 73 62 66 58
47 47 45 53 68 71 78 100 87 86 76 68 66 67 80 98 100 99 83 74 77 76 70 74 79 100 100 84 73 61 64 84 66
25 33 41 41 47 63 65 77 99 99 96 91 76 66 70 89 98 97 100 93 79 72 71 72 72 83 100 100 79 55 50 56 60
22 22 25 36 46 51 50 57 72 80 86 79 88 86 68 66 80 92 98 100 98 80 76 73 73 86 100 100 100 92 77 74 54
62 34 21 26 31 37 41 48 55 70 70 64 60 66 86 90 82 98 100 100 100 100 91 78 85 87 100 100 100 100 70 77 65
68 60 43 29 28 25 26 32 54 69 75 71 64 57 66 80 90 88 94 99 100 100 97 83 84 81 85 100 100 97 62 67 58
84 79 72 58 47 34 26 24 28 54 75 77 76 76 68 69 74 72 83 89 86 93 99 92 92 93 100 100 100 100 75 68 72
97 88 85 90 80 56 63 54 48 40 33 36 63 85 80 79 81 86 82 81 98 100 100 100 100 100 100 100 88 100 90 70 81
100 98 100 94 95 78 94 88 89 60 59 48 41 47 71 99 100 98 100 97 97 100 100 100 100 100 100 100 100 88 84 96 98
65 99 97 99 90 72 74 89 78 65 65 70 48 60 49 78 100 100 100 100 100 100 100 100 100 100 100 100 100 100 100 94 87
34 62 60 84 83 61 50 68 74 52 41 38 58 59 53 43 84 100 100 100 100 100 100 100 100 100 100 100 100 80 85 93 97
36 48 46 49 43 38 37 45 47 40 36 56 54 37 39 55 33 38 72 90 100 100 100 100 100 100 100 100 97 100 86 71 75
39 43 46 41 36 36 40 45 48 35 38 33 32 28 37 51 56 43 46 54 78 99 100 100 100 100 100 100 100 89 89 80 72
33 51 52 32 31 36 41 48 53 42 45 32 30 35 37 49 65 52 40 50 52 95 100 100 100 100 100 100 100 100 91 75 82
32 45 48 42 42 51 51 52 65 75 53 40 42 36 36 33 41 60 100 95 100 100 100 100 99 100 100 100 100 100 78 75 66
31 33 40 49 50 51 50 56 65 72 82 56 51 44 47 26 41 88 100 100 86 98 100 100 100 100 100 100 94 78 82 99 99
31 34 40 44 53 50 52 55 59 69 78 59 54 50 56 49 74 100 100 100 100 100 100 100 100 100 100 92 100 84 100 100 100

GFSFLT1_250_rhum_108.txt.gz
RH
51 55 64 66 58 52 54 52 52 49 52 47 50 49 50 48 46 48 49 52 52 51 51 54 54 56 77 67 57 55 67 52 51
49 57 57 70 71 64 58 63 60 59 55 56 52 52 59 59 52 49 49 54 59 60 59 58 63 62 64 89 88 92 79 67 63
52 56 80 72 78 74 66 70 93 72 70 61 61 54 52 63 70 74 69 63 69 76 70 70 71 62 68 100 100 100 100 81 54
79 69 65 70 64 72 78 71 74 100 100 89 67 65 64 56 60 74 84 91 88 83 83 83 81 65 68 81 100 96 90 60 54
67 66 59 55 62 68 73 78 74 68 89 89 100 87 79 68 66 62 67 76 83 79 76 76 82 70 69 72 96 100 92 94 84
26 25 30 27 36 53 62 64 68 70 70 74 72 86 100 100 88 81 72 71 86 88 72 70 78 70 64 68 76 100 100 100 83
36 27 26 26 23 23 36 47 54 57 73 78 76 74 94 99 94 98 99 83 72 71 91 100 100 94 76 68 65 98 100 100 97
100 84 87 48 50 47 25 22 30 38 50 77 86 84 78 84 89 78 69 88 100 98 82 94 100 100 100 78 68 71 97 100 100
100 100 100 90 67 70 58 33 23 26 33 51 66 74 91 95 87 92 80 67 73 93 100 100 100 100 99 80 82 88 100 100 100
96 100 90 89 86 96 83 62 56 59 41 31 32 35 68 97 99 97 94 98 79 71 85 97 93 98 99 92 95 100 100 100 100
95 96 97 93 82 91 88 87 78 68 76 55 36 30 27 35 74 95 100 100 98 96 92 82 87 86 97 100 100 100 100 100 100
100 99 97 100 96 96 100 97 97 88 90 84 66 69 68 63 64 56 50 59 100 100 100 100 100 97 91 97 99 100 100 100 100
47 99 100 97 100 98 100 100 99 95 86 86 80 76 90 81 62 51 76 88 64 76 99 100 100 100 100 93 95 98 100 100 100
28 45 78 79 97 97 96 87 96 100 96 81 68 52 63 73 48 48 59 69 61 63 60 100 100 100 100 100 97 99 100 100 95
18 31 46 53 46 64 68 76 83 72 75 86 66 46 46 47 36 37 33 32 40 43 54 53 100 100 100 100 100 100 100 100 100
32 23 43 39 38 43 49 51 53 43 54 55 49 55 57 54 45 42 47 41 39 50 60 71 46 48 85 100 100 100 100 100 100
21 24 23 24 27 40 45 46 49 52 53 48 47 44 53 68 64 48 60 54 46 57 54 58 62 62 74 90 91 100 100 100 100
15 30 23 24 25 30 40 42 52 49 43 43 61 56 64 72 71 73 64 64 54 63 70 63 78 71 80 97 100 100 100 100 99
15 21 27 24 34 32 30 36 46 43 53 49 55 56 61 68 69 67 70 76 66 68 62 60 88 100 100 100 100 100 100 100 99
16 17 25 27 32 32 33 30 38 43 40 51 52 53 61 64 63 60 77 60 55 62 71 62 72 84 100 100 100 100 100 100 98

GFSFLT1_250_rhum_111.txt.gz
RH
60 56 57 54 50 49 52 52 54 54 51 53 55 50 50 45 42 43 45 44 44 46 52 58 63 62 68 74 64 85 100 100 98
64 73 83 76 65 53 56 58 59 57 56 54 58 60 58 56 52 45 50 55 53 50 52 59 69 70 70 73 72 94 100 98 99
78 66 80 100 95 74 67 65 62 62 62 61 62 72 66 64 61 61 54 55 63 65 68 72 73 63 61 63 67 65 99 97 70
86 86 75 71 96 88 74 89 100 98 77 66 62 85 98 92 71 64 65 66 62 65 72 68 63 62 54 51 54 64 66 100 100
51 54 63 69 80 90 91 85 100 100 100 88 66 61 64 92 100 99 83 75 78 76 73 75 71 65 64 58 55 50 59 60 100
32 28 26 30 35 75 75 75 77 82 97 100 100 88 67 65 71 73 82 100 100 89 85 86 90 93 75 92 97 81 66 55 59
65 70 78 43 29 26 28 33 38 49 63 95 100 97 92 85 70 79 77 81 100 100 100 95 87 90 97 93 100 100 100 79 67
100 100 100 100 96 71 48 31 26 33 27 27 42 61 60 69 77 96 98 86 84 100 100 100 87 86 100 100 100 100 100 100 84
100 100 100 100 100 100 99 83 62 62 64 65 43 27 28 38 48 76 100 100 98 94 95 99 99 84 77 80 95 95 95 92 90
100 100 100 100 98 98 99 100 96 76 65 76 66 57 45 38 34 39 58 90 93 95 100 98 97 94 94 91 88 79 70 69 73
100 100 100 100 100 96 99 100 99 83 74 64 63 63 70 63 62 47 34 35 36 44 67 92 100 100 99 83 89 93 83 77 84
88 82 93 100 100 100 100 93 97 90 93 84 78 72 72 68 66 74 71 79 88 80 74 72 72 73 68 98 100 100 94 87 82
68 75 70 97 100 100 100 100 100 99 98 92 85 96 89 83 70 70 69 66 55 84 66 52 50 65 79 82 88 100 100 100 98
31 61 50 84 93 100 99 100 100 100 100 100 99 99 100 89 89 81 86 73 52 50 52 41 36 31 39 45 54 70 97 100 100
33 35 39 55 65 72 86 73 77 100 100 100 100 99 96 90 83 85 86 70 60 58 50 42 40 33 37 40 46 70 69 84 100
22 28 35 60 50 46 56 47 46 92 93 79 95 100 93 88 82 69 66 61 52 51 48 44 40 54 43 39 38 64 73 71 73
17 20 28 33 50 29 32 32 41 42 56 66 55 62 62 60 60 54 63 67 55 46 58 71 63 58 52 43 40 50 70 70 72
16 16 17 24 41 30 26 22 26 36 46 59 52 46 56 60 60 57 61 62 59 59 61 70 66 64 57 63 57 60 64 71 79
12 18 16 23 51 26 25 18 20 28 39 57 68 53 43 47 54 57 59 60 71 63 56 56 63 66 60 87 69 63 62 97 92
11 18 24 26 40 38 29 15 18 27 26 26 37 39 35 32 48 55 54 52 57 64 56 54 62 63 62 74 90 69 63 81 93

GFSFLT1_250_rhum_114.txt.gz
RH
98 92 71 64 62 60 66 62 64 62 52 50 49 47 50 54 59 58 56 53 52 49 51 52 52 50 52 57 55 57 67 86 96
96 100 97 84 79 70 72 86 81 69 64 59 58 56 53 52 61 65 62 61 60 60 59 59 61 62 62 56 50 48 52 56 81
100 100 100 100 95 83 76 97 100 96 83 72 67 65 66 63 60 72 80 70 65 64 65 65 65 67 63 61 58 54 51 54 56
81 100 100 100 100 100 100 93 100 100 100 100 92 96 89 81 75 65 85 100 98 84 74 73 78 77 77 74 73 76 64 62 58
53 58 76 83 86 86 87 92 100 100 100 100 100 100 100 100 93 94 82 71 78 94 100 100 100 98 89 89 97 95 89 92 100
68 51 48 46 42 31 39 56 72 86 100 100 100 100 100 100 100 97 93 87 74 74 79 86 89 100 100 100 100 90 100 100 100
90 78 86 77 62 52 34 40 54 62 66 83 86 85 84 91 95 100 100 98 87 75 74 93 99 100 100 100 100 100 97 96 100
86 98 90 96 80 79 79 64 57 42 50 40 32 29 28 31 34 46 86 100 100 99 82 81 100 91 91 90 87 95 98 92 81
54 84 98 99 100 96 100 93 87 75 81 72 68 68 62 68 72 53 39 33 33 38 61 81 100 100 100 96 99 93 84 81 78
88 79 90 100 100 100 100 100 96 92 82 99 87 71 63 66 71 70 67 73 69 58 43 42 46 76 100 100 100 100 100 100 100
73 83 87 89 98 100 100 100 100 100 90 100 100 95 81 55 54 63 70 72 66 73 70 59 56 57 53 45 44 57 72 84 81
48 58 85 99 96 93 100 100 100 100 100 96 100 100 100 87 54 64 78 76 85 78 80 76 71 58 93 91 68 53 45 55 79
52 40 47 70 94 96 86 97 99 100 100 98 92 98 100 100 99 91 92 86 80 82 86 75 76 70 45 43 46 41 33 27 39
34 39 38 38 54 75 96 99 92 96 100 100 100 100 100 100 100 100 100 94 89 82 85 76 79 72 54 56 55 52 43 36 34
17 26 30 32 34 45 65 92 96 82 79 98 98 99 94 94 100 100 100 100 99 87 88 86 75 70 62 60 54 52 61 53 44
10 13 19 28 34 26 36 64 48 75 76 67 95 100 94 95 86 100 99 100 100 100 95 89 78 68 64 59 58 56 56 54 51
8 10 12 15 23 32 32 38 53 39 55 56 54 82 92 90 70 72 100 83 83 78 74 64 69 74 74 70 57 62 62 53 58
9 11 11 12 15 21 37 38 52 74 31 41 37 54 72 77 74 54 74 84 78 63 59 64 63 61 61 65 68 69 65 56 64
7 14 7 10 16 19 21 32 48 73 66 44 28 37 47 62 49 67 65 68 90 89 61 53 59 59 58 55 51 56 62 60 60
7 9 6 8 13 17 20 22 26 36 43 58 44 40 30 32 32 43 70 67 71 75 76 54 51 47 52 54 47 49 47 54 59

GFSFLT1_250_rhum_120.txt.gz
RH
100 100 100 100 100 92 100 100 98 87 89 82 74 76 68 70 86 88 82 76 69 66 61 69 70 65 68 65 63 63 66 71 73
54 52 75 94 100 100 94 88 97 95 93 91 89 84 85 83 82 100 100 94 87 88 86 83 77 92 87 78 77 77 76 91 88
41 46 56 60 69 100 100 97 100 100 100 100 100 100 99 99 92 93 96 98 98 98 100 100 98 85 99 100 100 100 100 100 100
42 32 30 32 38 64 92 97 100 100 100 100 98 100 100 100 100 100 100 100 100 92 92 96 100 100 96 93 94 94 97 98 97
44 47 39 33 30 29 39 52 64 80 96 99 100 100 100 100 96 100 92 89 95 93 94 82 81 94 93 92 96 95 93 77 70
54 48 47 41 38 38 54 63 77 67 68 66 64 62 68 65 65 60 76 81 83 89 90 90 100 100 99 91 86 85 89 83 78
78 74 57 43 43 40 47 62 79 94 79 80 81 56 45 36 34 40 61 65 74 73 74 82 75 72 54 42 50 70 74 81 85
67 79 73 60 47 44 49 47 51 49 63 80 80 86 68 54 46 50 53 49 44 43 43 37 33 37 59 54 46 45 54 50 55
57 50 56 68 67 64 56 56 50 44 48 51 60 79 90 73 67 74 73 64 68 73 72 66 69 73 65 72 74 63 61 63 54
41 41 44 42 41 61 56 62 71 67 54 54 60 51 83 92 90 88 78 77 69 66 65 78 77 79 73 64 68 69 70 62 65
31 35 38 36 34 34 38 50 52 69 73 71 71 74 62 89 86 94 100 99 67 73 68 74 83 75 72 57 63 73 72 75 75
24 23 26 31 34 42 38 35 43 50 52 70 78 74 75 71 92 96 100 98 88 84 84 80 75 76 73 72 76 76 78 71 77
24 23 23 24 26 30 38 43 40 42 37 45 65 83 79 74 79 84 100 100 89 76 78 83 70 77 85 93 82 97 85 80 80
19 20 22 21 20 27 28 32 39 38 33 42 56 79 89 92 84 89 96 93 94 97 84 96 73 82 92 99 100 99 96 86 85
12 16 17 18 12 14 22 25 28 31 32 30 34 46 67 94 100 83 100 100 86 80 100 96 92 98 100 100 100 100 96 100 93
6 6 6 6 6 6 8 15 22 30 31 25 33 38 44 77 98 89 100 100 100 94 100 98 100 100 91 100 100 100 100 100 100
4 4 5 5 5 6 6 6 8 16 20 19 26 36 46 44 70 95 98 94 100 100 93 95 96 100 100 98 100 100 100 100 97
4 4 4 4 5 6 6 6 6 8 12 16 19 32 43 48 48 55 70 78 91 97 90 91 88 80 91 100 100 100 100 100 100
2 2 3 3 4 5 6 6 6 7 8 8 10 11 22 41 62 50 41 49 64 65 72 76 72 87 72 88 91 82 86 100 99
2 2 2 3 3 4 5 6 8 8 10 10 9 8 10 17 34 65 70 51 44 56 82 66 81 63 60 58 61 80 92 90 84

GFSFLT1_250_rhum_123.txt.gz
RH
40 46 68 80 92 89 95 100 100 95 98 92 88 85 80 81 77 74 75 77 99 100 98 86 74 73 73 73 67 76 78 77 84
53 44 52 72 72 70 73 81 88 96 100 100 98 88 86 84 96 93 92 92 96 95 99 95 94 92 91 90 85 77 100 99 100
51 52 54 60 57 46 50 50 64 69 84 96 100 100 100 100 100 100 100 100 100 100 100 100 95 92 95 96 100 100 86 87 90
43 46 47 48 51 49 52 38 40 53 78 86 84 83 91 100 100 100 100 97 95 100 92 100 100 100 98 100 90 85 87 91 77
48 48 40 37 39 46 51 49 45 35 41 64 73 74 73 77 83 98 100 100 100 100 100 100 99 100 100 96 94 100 100 100 98
46 45 44 44 48 42 36 42 48 53 59 62 59 66 70 67 63 64 62 59 62 59 56 60 76 90 91 88 90 100 100 90 68
52 55 43 48 46 38 42 36 34 42 48 74 91 95 81 81 82 65 52 44 36 36 36 49 66 71 72 64 63 61 40 50 53
78 61 50 43 38 46 48 40 48 36 35 43 59 69 91 90 83 86 75 67 53 46 45 58 54 50 50 46 42 42 66 60 59
65 67 51 40 39 38 41 45 42 42 43 36 36 50 56 60 69 77 78 78 71 61 66 70 69 75 75 80 76 75 68 67 76
40 36 40 39 35 32 33 38 48 44 37 39 41 37 34 43 57 69 65 59 88 84 79 73 72 59 74 75 86 84 78 65 68
39 35 36 33 30 31 26 27 33 40 48 39 36 40 41 37 37 54 76 74 74 100 98 84 97 69 56 63 64 66 74 76 73
33 28 26 27 28 27 27 27 28 31 37 45 42 37 42 45 52 45 44 61 77 90 100 99 99 100 82 72 66 73 72 71 76
31 27 24 24 21 21 24 26 27 32 32 40 43 43 40 40 42 59 54 48 61 75 91 96 100 99 89 81 81 83 66 82 84
18 17 18 18 16 16 18 20 24 26 27 32 38 43 48 46 43 43 50 58 82 84 88 88 100 100 94 94 82 92 88 87 93
7 7 8 12 14 14 12 8 9 10 16 23 30 33 38 44 44 40 48 47 73 99 100 85 79 81 100 100 97 100 93 83 88
5 4 4 5 5 6 6 6 6 5 6 8 13 24 30 32 37 37 45 50 50 89 100 100 100 94 62 100 94 88 89 99 96
4 4 4 4 4 5 5 6 7 7 6 7 7 8 12 10 11 28 32 50 70 80 95 98 100 100 96 100 100 100 100 86 80
3 3 3 3 3 3 4 4 5 6 7 7 7 7 9 10 9 12 22 38 66 85 92 98 93 100 100 100 100 100 100 96 94
2 2 2 2 2 2 3 3 4 5 6 7 8 8 9 9 11 14 16 18 52 80 100 100 100 94 100 100 100 100 100 98 92
3 3 3 2 2 2 3 3 3 4 5 6 8 9 10 11 11 13 16 19 27 75 96 100 100 100 100 94 100 99 80 90 98

GFSFLT1_250_rhum_126.txt.gz
RH
65 64 53 43 36 38 48 60 71 94 94 86 79 85 86 84 78 80 79 86 82 87 86 82 84 86 80 74 77 74 73 80 72
41 38 43 50 50 41 39 51 54 72 89 94 93 99 100 100 92 84 90 99 100 100 100 100 97 94 79 75 84 88 95 88 96
77 72 59 52 62 59 55 53 49 50 49 44 52 75 73 85 100 97 100 100 100 100 100 98 97 85 94 94 96 91 84 87 90
32 43 51 56 49 47 51 54 52 51 53 63 56 53 57 73 87 98 93 89 84 82 83 96 100 100 100 99 100 100 100 100 86
50 36 32 32 36 47 47 37 49 49 43 46 70 74 57 48 56 87 95 93 88 90 94 97 98 100 100 100 99 90 100 100 94
55 58 60 42 36 34 35 40 42 38 43 45 48 56 61 71 68 57 56 67 72 73 67 67 63 61 54 48 57 78 90 93 88
78 67 66 65 69 54 40 36 39 42 39 38 30 41 49 67 78 82 78 70 71 66 66 57 50 42 37 42 60 67 69 69 58
89 96 81 82 81 78 65 51 44 40 44 35 35 31 27 44 67 71 84 85 84 78 81 78 62 55 53 53 60 60 57 55 50
72 67 63 60 64 66 64 52 50 49 42 42 34 38 41 34 33 49 64 71 74 70 77 80 78 71 70 78 75 66 75 80 69
55 62 62 60 58 57 56 50 51 53 47 45 39 32 38 38 37 33 32 46 59 62 73 70 72 68 74 72 69 68 63 77 79
43 44 45 45 42 46 50 53 49 48 50 48 39 36 36 34 37 39 39 40 31 40 54 73 74 70 70 80 85 78 66 63 75
30 30 31 26 23 24 29 33 34 35 37 38 36 40 38 34 34 41 43 39 42 36 36 46 60 71 83 92 87 85 91 79 72
14 14 17 18 15 12 10 14 19 21 25 27 29 32 34 35 34 35 40 54 52 43 40 39 65 59 72 83 88 96 99 95 88
8 7 6 6 7 7 8 8 7 8 10 15 22 26 27 26 26 33 38 38 47 57 41 41 50 55 68 77 95 94 92 99 100
7 6 6 5 5 5 5 5 6 7 7 6 8 12 18 31 29 29 30 35 34 40 52 46 50 70 65 84 78 76 80 83 98
6 6 6 5 4 4 4 4 4 4 6 6 6 8 10 11 23 30 28 28 32 35 42 49 48 61 74 83 99 84 98 84 68
7 9 6 4 3 3 3 3 3 4 4 4 5 6 6 6 10 17 19 20 23 26 35 38 43 46 84 91 100 100 100 88 100
18 14 11 4 2 2 2 2 2 3 3 4 4 5 6 7 8 9 12 13 14 15 22 37 44 47 73 84 90 98 88 90 97
19 16 13 7 4 3 4 2 2 2 3 3 4 4 5 7 8 8 9 10 15 14 12 16 28 40 80 98 100 100 100 100 100
18 18 14 8 4 3 4 3 2 2 2 2 3 4 5 6 7 10 10 13 17 16 15 18 28 22 33 100 100 100 100 100 100

GFSFLT1_250_rhum_129.txt.gz
RH
92 100 60 44 46 55 52 46 39 40 43 61 68 88 96 92 87 95 91 89 89 77 71 80 87 95 100 97 78 78 79 78 84
44 57 90 98 87 66 49 39 44 42 37 49 58 64 80 90 90 90 99 99 96 91 78 81 96 83 100 98 96 76 76 81 88
50 51 50 48 45 70 89 71 61 48 39 38 51 51 55 66 69 68 81 84 89 93 96 97 98 100 96 82 80 82 87 94 92
59 57 53 52 53 54 44 58 76 75 72 56 52 49 59 65 56 51 53 59 74 88 96 100 97 89 88 89 87 92 90 97 100
46 50 60 66 64 56 49 48 46 47 58 66 66 55 50 54 68 77 60 53 52 62 86 98 96 89 84 87 94 94 92 100 100
49 51 54 56 54 60 66 52 54 57 51 55 56 53 55 49 49 59 60 52 58 62 55 54 58 76 88 77 68 64 58 54 46
72 72 62 64 66 66 62 71 63 64 59 60 62 59 50 54 47 38 47 50 52 68 78 74 75 73 74 66 57 51 46 37 42
66 63 62 68 72 64 60 61 63 62 65 53 47 56 59 49 47 45 38 37 47 51 67 84 93 84 79 81 76 58 53 50 48
60 59 52 48 41 44 50 48 46 46 41 37 39 45 46 48 57 52 47 48 38 38 55 62 77 86 78 76 81 78 65 63 64
55 52 45 42 37 36 41 41 44 41 38 36 31 32 38 49 51 48 51 52 48 47 41 39 54 69 74 65 73 82 78 75 68
48 43 43 43 42 42 38 38 35 34 36 35 36 35 29 30 34 44 45 49 48 50 52 47 37 36 53 62 61 66 70 70 71
46 43 41 41 34 26 20 16 15 14 11 14 22 30 35 36 32 32 36 42 45 48 39 46 52 44 36 36 45 56 59 67 75
23 18 16 14 12 11 10 9 8 8 8 8 10 10 18 26 33 40 36 37 37 46 40 37 43 45 53 46 40 44 50 58 75
13 12 13 13 12 10 9 9 8 8 7 5 5 6 6 9 14 23 37 36 37 38 38 41 39 43 52 52 52 50 52 46 51
17 15 11 9 8 6 6 7 11 12 9 5 4 5 5 5 6 8 16 28 38 44 46 40 41 42 42 52 60 52 53 51 52
9 9 8 10 12 14 14 10 9 11 9 5 4 4 4 5 5 5 7 20 32 39 60 48 90 76 71 33 45 54 55 59 60
20 22 21 19 16 13 11 9 8 10 6 3 3 3 4 4 5 6 6 9 28 36 42 45 58 77 50 41 36 44 65 66 81
17 15 14 13 11 10 12 11 11 11 6 3 3 2 2 3 4 4 6 8 13 61 21 34 44 40 42 43 37 39 52 77 87
21 20 18 16 13 10 10 9 11 10 4 3 3 3 3 3 3 4 6 7 9 18 19 17 25 28 28 32 33 32 34 64 94
24 23 20 18 17 15 12 11 10 9 5 4 3 3 3 3 3 3 5 7 8 12 16 18 19 19 17 19 26 40 44 40 64